     2              OBSERVATION DATA    GPS                 RINEX VERSION / TYPE
srx v1.3 (5/19/93) STARR 93/10/27 17:24:30                  PGM / RUN BY / DATE
                                                            COMMENT
sig: 9 8 7 6 5 4 1 0                                        COMMENT
sig: 9 8 7 6 5 4 1 0                                        COMMENT
sig: 9 8 7 6 5 4 1 0                                        COMMENT
Original Marker Name: 3075                                  COMMENT
Campaign Name: Baja (Dixon) 1993                            COMMENT
4-Character Station Name: 3075                              COMMENT
6-Character Antenna Code: DMRCHT                            COMMENT
Vertical Measurement Point: BPA                             COMMENT
Vertical Offset to Rinex Ref. Point: 0.0000                 COMMENT
Radial Measurement Point: RRP                               COMMENT
Radial Offset to Rinex Ref. Point: 0.0000                   COMMENT
Antenna Height from Field Measurement: 0.0614 m             COMMENT
Additional Antenna Identification Info.:                    COMMENT
Turborogue and Ashtech Choke Ring                           COMMENT
Original XYZ: -2493309.0382 -4655182.3466 3565500.9443      COMMENT
New XYZ position is based on association with SCEC monument COMMENT
E1C2M1S9+0011. Position of that monument is believed to be  COMMENT
valid to within 1 m horizontally; vertical accuracy         COMMENT
should be no worse than 3-times this value.                 COMMENT
                                                            COMMENT
Revised Rinex header created by UCSD GPS archive for        COMMENT
GSAC on 09-Nov-2004 (2004:314) 21:57:53 GMT                 COMMENT
For assistance contact dagnew@ucsd.edu                      COMMENT
or anderson@python.ucsd.edu                                 COMMENT
                                                            COMMENT
3075S                                                       MARKER NAME
THE OBSERVER WAS?___JET PROPULSION LABORATORY               OBSERVER / AGENCY
133 TURBOROGUE SNR-8000 100.1                               REC # / TYPE / VERS
133 DORNE-MARGOL. TYPE T                                    ANT # / TYPE
 -2366179.0000 -4903455.0000  3313162.0000                  APPROX POSITION XYZ
        0.0614        0.0000        0.0000                  ANTENNA: DELTA H/E/N
     1     1     0                                          WAVELENGTH FACT L1/2
     4    L1    L2    P1    P2                              # / TYPES OF OBSERV
   120                                                      INTERVAL
  1993     4     9    13    52    0.000000                  TIME OF FIRST OBS
  1993     4     9    23    10    0.000000                  TIME OF LAST OBS
    20                                                      # OF SATELLITES
          01   196   196   196   196                        PRN / # OF OBS
          02   420   420   420   420                        PRN / # OF OBS
          11   478   478   478   478                        PRN / # OF OBS
          12    24    24    24    24                        PRN / # OF OBS
          13   118   118   118   118                        PRN / # OF OBS
          14   591   591   591   591                        PRN / # OF OBS
          15   545   545   545   545                        PRN / # OF OBS
          16   361   361   361   361                        PRN / # OF OBS
          18   826   826   826   826                        PRN / # OF OBS
          19   823   823   823   823                        PRN / # OF OBS
          20    73    73    73    73                        PRN / # OF OBS
          21    68    68    68    68                        PRN / # OF OBS
          22   562   562   562   562                        PRN / # OF OBS
          24    24    24    24    24                        PRN / # OF OBS
          25   343   343   343   343                        PRN / # OF OBS
          26   206   206   206   206                        PRN / # OF OBS
          27   670   670   670   670                        PRN / # OF OBS
          28   465   465   465   465                        PRN / # OF OBS
          29   774   774   774   774                        PRN / # OF OBS
                                                            END OF HEADER
 93 04 09 13 52 00.0000000  0  6 14 29 25 15 01 20
        -0.13818        -0.49918  22503887.44918  22503887.93318
        -0.82518        -0.81018  23206468.69718  23206468.58718
        -0.46919        -0.43518  20474112.32319  20474111.83618
        -0.46718        -0.20818  20941262.60018  20941263.01418
        -0.06318         0.20918  23176258.11618  23176259.54218
        -0.56417        -0.80617  24912545.27117  24912548.25717
 93 04 09 13 54 00.0000000  0  8 14 29 22 25 15 01 21 20
   -415116.61708   -323467.93008  22424893.42008  22424893.94608
   -304747.48308   -237465.78408  23148477.46008  23148477.29908
        -0.32118        -0.20318  23742720.26518  23742722.15318
     32911.13309     25644.88708  20480375.16609  20480374.73608
     15958.16608     12434.98308  20944299.54108  20944299.97608
    188546.58208    146919.38008  23212137.55408  23212138.89108
        -0.79718        -0.56918  24222112.87218  24222116.17118
     54933.90807     42804.98507  24922999.27407  24923002.06907
 93 04 09 13 56 00.0000000  0  8 14 29 22 25 15 01 21 20
   -830026.97808   -646774.76308  22345938.68708  22345939.23308
   -609120.00508   -474639.21108  23090557.23908  23090557.09408
   -431243.10508   -336033.53208  23660657.41208  23660659.33308
     72272.63209     56316.10808  20487865.49609  20487865.14508
     39923.85608     31109.44608  20948860.17108  20948860.62008
    375522.89008    292614.89608  23247718.14508  23247719.61808
    294212.73507    229256.08608  24278100.13307  24278103.65808
    116254.02607     90586.66807  24934667.96907  24934671.15807
 93 04 09 13 58 00.0000000  0  8 14 29 22 25 15 01 21 20
  -1245867.00208   -970806.00308  22266807.02308  22266807.58508
   -913866.70508   -712104.18008  23032565.86408  23032565.82008
   -864012.10408   -673256.05808  23578304.08308  23578306.08008
    117297.82509     91400.59808  20496433.43809  20496433.08908
     71088.56608     55393.52808  20954790.66908  20954791.20308
    560071.19308    436418.43308  23282836.93008  23282838.33708
    589531.33007    459373.78808  24334298.01107  24334301.64708
    183190.49907    142744.72907  24947405.73507  24947408.97507
 93 04 09 14 00 00.0000000  0  8 14 29 22 25 15 01 21 20
  -1661642.13208  -1294786.67108  22187687.66708  22187688.29608
  -1218423.08508   -949420.84608  22974610.79108  22974610.65208
  -1297773.43408  -1011251.77808  23495762.06508  23495763.94808
    168371.54409    131198.21508  20506152.48409  20506152.18608
    109701.93808     85481.75608  20962138.63508  20962139.16208
    742977.12108    578942.21808  23317642.95508  23317644.45908
    885735.38707    690181.45608  24390664.28207  24390668.07808
    256028.48307    199501.38507  24961266.80707  24961269.61907
 93 04 09 14 02 00.0000000  0  8 14 29 22 25 15 01 21 20
  -2076840.60008  -1618318.00208  22108678.10308  22108678.70108
  -1522531.24008  -1186388.25408  22916740.81308  22916740.81508
  -1731636.31708  -1349326.63808  23413200.70808  23413202.55808
    225991.20609    176096.56108  20517117.32409  20517117.05608
    156358.58408    121837.45908  20971017.20208  20971017.74308
    924602.81708    720468.38508  23352205.54708  23352206.99608
   1183515.44708    922217.17607  24447330.64708  24447334.41207
    335399.35007    261348.56407  24976370.60407  24976373.94107
 93 04 09 14 04 00.0000000  0  8 15 14 29 22 01 25 21 20
    211220.57608    164586.92808  20981457.14908  20981457.76908
  -2491248.87408  -1941233.58508  22029818.78208  22029819.43708
  -1826184.84008  -1423001.43808  22858957.51808  22858957.48308
  -2165137.64208  -1687119.87008  23330708.08708  23330710.01908
   1105263.94908    861242.93108  23386584.38008  23386585.89608
    290347.58209    226244.29208  20529363.98409  20529363.79208
   1483276.36708   1155796.45707  24504373.78208  24504377.48907
    421504.76707    328443.45107  24992756.26507  24992759.64907
 93 04 09 14 06 00.0000000  0  8 15 14 29 22 01 25 21 20
    274534.76208    213922.52708  20993505.56308  20993506.22708
  -2903815.70108  -2262714.27408  21951309.96408  21951310.62908
  -2128378.52108  -1658477.02608  22801452.02708  22801451.96908
  -2597720.49208  -2024197.46608  23248390.41808  23248392.35808
   1285220.04708   1001468.10608  23420829.21408  23420830.71608
    361444.45608    281644.36708  20542893.32008  20542893.17008
   1785046.85708   1390941.65007  24561799.40508  24561803.35307
    514634.56307    401011.79107  25010478.49507  25010481.99807
 93 04 09 14 08 00.0000000  0  8 15 14 29 22 01 25 21 20
    346534.39208    270026.00008  21007206.75508  21007207.39008
  -3314425.70708  -2582670.16108  21873173.58908  21873174.20208
  -2429128.47308  -1892827.64808  22744221.25208  22744221.09708
  -3028833.92608  -2360130.03208  23166352.25808  23166354.25008
   1464918.08608   1141492.17608  23455024.91708  23455026.60508
    439643.75109    342578.78208  20557774.25709  20557774.11208
   2089238.74608   1627973.61007  24619685.67508  24619689.92407
    615062.43507    479266.94207  25029589.30807  25029592.98407
 93 04 09 14 10 00.0000000  0  8 15 29 14 22 01 25 21 20
    427140.23208    332835.61508  21022545.65008  21022546.30708
  -2728384.83208  -2126014.45308  22687274.68108  22687274.50108
  -3722728.41108  -2900828.15008  21795476.14808  21795476.78608
  -3458234.37608  -2694727.74808  23084640.12708  23084642.04808
   1644414.84808   1281359.41908  23489182.16408  23489184.26508
    525058.61709    409135.71608  20574028.28109  20574028.17008
   2395946.58107   1866966.01607  24678050.70107  24678055.19007
    722749.53607    563178.71107  25050081.91407  25050085.48807
 93 04 09 14 12 00.0000000  0  8 14 29 22 15 25 01 21 20
  -4128863.19508  -3217296.84508  21718191.33908  21718192.02008
  -3026525.82608  -2358332.13008  22630540.28508  22630540.13508
  -3885939.76508  -3028004.64008  23003250.41908  23003252.30008
    516005.36608    402081.03708  21039456.27508  21039456.92308
    617360.91509    481059.47308  20591592.97509  20591592.82008
   1823505.59508   1420910.28108  23523262.32408  23523264.31408
   2704866.89707   2107682.36807  24736836.86807  24736841.58107
    837393.87407    652511.74307  25071898.30707  25071901.77907
 93 04 09 14 14 00.0000000  0  8 14 29 22 15 25 01 21 20
  -4532681.06408  -3531960.16708  21641347.30408  21641348.06008
  -3323367.15608  -2589637.09608  22574053.28808  22574053.14908
  -4311701.18708  -3359766.76608  22922230.70008  22922232.45408
    613039.49608    477691.90108  21057921.34108  21057922.06208
    715997.50908    557919.04208  20610362.96408  20610362.83708
   2002228.18408   1560174.25108  23557272.43608  23557274.51408
   3015621.83907   2349828.19607  24795972.24407  24795976.98607
    958949.65507    747230.25307  25095029.89607  25095033.29107
 93 04 09 14 16 00.0000000  0  8 29 14 22 15 01 25 21 20
  -3618910.11508  -2819930.33508  22517813.39308  22517813.33808
  -4933846.13308  -3844556.37208  21565008.17708  21565008.83708
  -4735098.01908  -3689686.31808  22841660.70108  22841662.81108
    718324.06108    559731.68808  21077956.40808  21077957.19208
   2180589.63908   1699156.80908  23591213.54708  23591215.80708
    821672.99808    640263.46608  20630472.45108  20630472.35408
   3328837.08107   2593891.06307  24855575.81007  24855580.88807
   1087540.43607    847430.58307  25119500.01307  25119503.44107
 93 04 09 14 18 00.0000000  0  8 29 14 22 15 01 25 21 20
  -3912853.04108  -3048976.78008  22461877.92108  22461877.84408
  -5332281.17908  -4155025.28208  21489188.60108  21489189.26908
  -5155966.12408  -4017635.43908  22761572.26908  22761574.15908
    831672.95008    648055.36408  21099526.12908  21099526.92608
   2358689.78208   1837935.72608  23625105.43108  23625107.71008
    933822.53908    727652.59808  20651813.93508  20651813.79908
   3643879.58407   2839377.67507  24915527.23607  24915532.53207
   1223029.65107    953006.21907  25145283.15507  25145286.72007
 93 04 09 14 20 00.0000000  0  8 29 14 22 15 01 21 25 20
  -4205274.20508  -3276837.43208  22406232.05608  22406232.01508
  -5727803.27108  -4463224.35808  21413923.25308  21413923.91608
  -5574062.99908  -4343425.14808  22682011.14308  22682012.82308
    952976.67108    742577.59808  21122609.54908  21122610.37408
   2536315.42708   1976344.89508  23658906.80808  23658909.24208
   3960993.89507   3086478.76107  24975872.66307  24975878.37907
   1052379.07608    820034.18908  20674374.58808  20674374.52908
   1365353.53507   1063907.56707  25172366.82707  25172370.39907
 93 04 09 14 22 00.0000000  0  8 29 14 22 15 01 25 21 20
  -4496262.73008  -3503581.74608  22350858.78608  22350858.78408
  -6120002.03808  -4768833.84108  21339290.38008  21339291.04908
  -5988973.60908  -4666732.02408  22603056.22908  22603057.92308
   1082291.98508    843342.63108  21147217.59008  21147218.43108
   2714071.42808   2114855.61708  23692732.96908  23692735.32508
   1177413.82008    917463.72308  20698168.00508  20698167.95908
   4280266.22307   3335261.62607  25036629.03707  25036634.63107
   1514616.97107   1180216.38207  25200770.83907  25200774.74507
 93 04 09 14 24 00.0000000  0  7 29 14 22 15 01 20 25
  -4785786.98608  -3729185.09808  22295764.18408  22295764.17108
  -6508663.39108  -5071686.89808  21265330.63908  21265331.34208
  -6400444.22808  -4987358.38908  22524755.88608  22524757.58808
   1219509.78408    950265.45008  21173329.35208  21173330.25908
   2892029.70408   2253523.96908  23726597.58008  23726600.18208
   1670760.73507   1301886.35507  25230484.55307  25230488.33907
   1309007.83708   1020004.38108  20723209.58508  20723209.60108
 93 04 09 14 26 00.0000000  0  6 29 14 22 15 01 25
  -5073333.07308  -3953247.00508  22241046.03108  22241045.97708
  -6893546.08908  -5371595.54408  21192089.95208  21192090.67708
  -6808129.55608  -5305035.21608  22447175.90808  22447177.68308
   1364608.81108   1063329.46408  21200940.94108  21200941.88608
   3069856.55008   2392089.87908  23760437.32708  23760440.06108
   1447183.05308   1127673.24308  20749503.53908  20749503.61708
 93 04 09 14 28 00.0000000  0  6 29 14 22 15 01 25
  -5358942.86208  -4175800.13308  22186696.35508  22186696.30408
  -7274142.66608  -5668164.35908  21119664.93308  21119665.64108
  -7211661.83908  -5619475.94608  22370386.31908  22370388.01208
   1517585.30408   1182531.76908  21230051.55808  21230052.52908
   3248018.40608   2530916.81108  23794340.74408  23794343.61608
   1591809.01008   1240368.64208  20777025.08408  20777025.19108
 93 04 09 14 30 00.0000000  0  6 29 14 22 15 01 25
  -5642980.64908  -4397128.32408  22132645.80808  22132645.78808
  -7650928.13308  -5961763.46808  21047965.07408  21047965.80908
  -7610962.73708  -5930619.48208  22294401.88208  22294403.50408
   1678144.37208   1307642.57608  21260605.00608  21260606.04108
   3426638.09708   2670100.52308  23828331.38708  23828334.33408
   1742471.09508   1357767.51208  20805695.24608  20805695.36308
 93 04 09 14 32 00.0000000  0  6 15 29 22 01 14 25
   1846085.51108   1438505.62508  21292563.31708  21292564.35508
  -5925499.44208  -4617272.89008  22078884.31308  22078884.27808
  -8005854.31608  -6238327.13608  22219256.44108  22219258.14308
   3605397.33708   2809392.93408  23862348.47008  23862351.58208
  -8023392.62308  -6251995.58508  20977087.43908  20977088.17008
   1899092.43408   1479809.95208  20835499.52908  20835499.64608
 93 04 09 14 34 00.0000000  0  6 29 22 15 01 14 25
  -6206085.52108  -4835911.47008  22025490.59508  22025490.65808
  -8395898.32408  -6542257.46308  22145033.56608  22145035.26708
   2021468.09808   1575167.22008  21325937.60308  21325938.75108
   3784533.38508   2948978.93308  23896437.52808  23896440.65808
  -8391182.34508  -6538585.02408  20907099.48808  20907100.20308
   2061941.75508   1606705.35408  20866488.70808  20866488.89808
 93 04 09 14 36 00.0000000  0  6 29 22 15 01 14 25
  -6484564.85408  -5052908.43408  21972497.76908  21972497.86008
  -8780644.17008  -6842059.38308  22071818.78508  22071820.44608
   2204360.73708   1717680.79908  21360741.07408  21360742.21308
   3964512.53308   3089221.90508  23930686.73408  23930690.17908
  -8753671.96908  -6821044.52108  20838120.00608  20838120.75408
   2231076.98308   1738498.86108  20898674.32308  20898674.56608
 93 04 09 14 38 00.0000000  0  7 29 22 15 01 18 14 25
  -6761095.93608  -5268387.30108  21919875.71008  21919875.81508
  -9160230.24708  -7137840.71608  21999585.91108  21999587.51808
   2394239.70208   1865638.27408  21396873.98908  21396875.15308
   4144584.26308   3229536.96508  23964953.39308  23964957.05308
        -0.99817        -0.67017  24785023.31217  24785024.87217
  -9111201.36908  -7099638.92508  20770084.50308  20770085.23908
   2406042.76808   1874835.66408  20931969.33308  20931969.62408
 93 04 09 14 40 00.0000000  0  7 29 22 15 01 18 14 25
  -7035874.98108  -5482500.92908  21867587.08208  21867587.21408
  -9534666.04708  -7429608.82208  21928333.10708  21928334.73608
   2590710.16708   2018731.97008  21434261.21508  21434262.42508
   4324992.31608   3370114.17008  23999284.51908  23999287.90108
   -386947.00907   -301517.32807  24711390.18207  24711391.76107
  -9464389.96508  -7374850.87208  20702874.95908  20702875.77408
   2586134.11908   2015166.40908  20966239.62708  20966240.08708
 93 04 09 14 42 00.0000000  0  7 29 22 25 15 01 18 14
  -7309082.27708  -5695389.80608  21815597.55908  21815597.71908
  -9903525.17808  -7717031.46808  21858141.54008  21858143.11408
   2771512.56908   2159616.96208  21001516.19008  21001516.60708
   2793811.75808   2176992.77608  21472910.32208  21472911.59508
   4505848.71607   3511040.69708  24033700.49807  24033704.62908
   -773052.88807   -602379.26607  24637916.95407  24637918.57507
  -9812172.95008  -7645850.65308  20636694.07208  20636694.91508
 93 04 09 14 44 00.0000000  0  7 29 22 25 15 01 18 14
  -7580389.72808  -5906798.26008  21763969.57808  21763969.69008
 -10266461.90408  -7999839.26508  21789076.90408  21789078.55108
   2962624.95408   2308535.50908  21037883.78408  21037884.26908
   3003501.86908   2340387.48408  21512813.17908  21512814.42008
   4687081.92708   3652260.82408  24068188.61108  24068192.55208
  -1158065.42707   -902389.26507  24564651.64107  24564653.32607
 -10154441.58608  -7912553.53208  20571562.55608  20571563.43808
 93 04 09 14 46 00.0000000  0  7 29 22 25 15 01 18 14
  -7849593.07908  -6116567.15808  21712741.93408  21712742.06508
 -10623140.24508  -8277770.41408  21721203.30608  21721204.90908
   3159214.52908   2461721.97308  21075293.74908  21075294.25308
   3219729.36408   2508876.25208  21553960.01508  21553961.35808
   4869275.24808   3794229.10308  24102859.22308  24102863.35308
  -1542279.20007  -1201776.83807  24491538.43407  24491540.12707
 -10490824.37208  -8174670.04008  20507551.06808  20507551.95008
 93 04 09 14 48 00.0000000  0  7 29 22 25 15 01 18 14
  -8116961.59608  -6324906.33808  21661863.42608  21661863.62408
 -10973578.44308  -8550839.11308  21654517.14908  21654518.77508
   3360877.98408   2618862.10308  21113669.21708  21113669.76208
   3442087.17108   2682141.88808  21596273.45108  21596274.91308
   5051840.41708   3936487.07808  24137600.73508  24137605.03108
  -1925610.15807  -1500476.51707  24418593.15207  24418594.89407
 -10821263.44408  -8432155.09108  20444670.72808  20444671.59808
 93 04 09 14 50 00.0000000  0  7 29 22 25 15 01 18 14
  -8382654.00508  -6531939.46208  21611303.83608  21611304.10708
 -11317632.64408  -8818933.25108  21589045.74708  21589047.39408
   3567532.10008   2779891.05708  21152994.38508  21152994.98208
   3670333.77708   2859996.17308  21639707.44808  21639708.92808
   5235023.33908   4079226.40808  24172459.53608  24172464.11408
  -2308297.91608  -1798674.97207  24345770.32508  24345771.97907
 -11146147.62508  -8685311.65908  20382847.35608  20382848.20608
 93 04 09 14 52 00.0000000  0  7 29 22 25 15 01 18 14
  -8646428.61708  -6737478.19408  21561109.23908  21561109.52908
 -11654790.98508  -9081653.98808  21524886.66108  21524888.27908
   3779241.13708   2944858.92308  21193281.48308  21193282.04108
   3904592.59108   3042535.27008  21684285.60908  21684287.20908
   5419262.33908   4222788.63008  24207519.63908  24207524.24008
  -2689960.47908  -2096074.50207  24273142.40608  24273144.24007
 -11464695.54308  -8933530.86108  20322229.79408  20322230.64808
 93 04 09 14 54 00.0000000  0  7 29 22 25 15 01 18 14
  -8907494.34808  -6940906.09208  21511430.20608  21511430.46408
 -11984518.02508  -9338584.12408  21462141.72708  21462143.32108
   3996205.54508   3113921.88408  21234568.59808  21234569.26708
   4145013.40508   3229875.93208  21730036.36808  21730038.01808
   5604422.10507   4367068.29107  24242754.99507  24242759.55207
  -3070027.74908  -2392230.97607  24200818.16908  24200820.01907
 -11776300.38408  -9176339.88608  20262933.40508  20262934.35308
 93 04 09 14 56 00.0000000  0  7 29 22 25 15 01 18 14
  -9166460.89908  -7142698.26308  21462150.60608  21462150.83908
 -12307193.81408  -9590019.78208  21400738.53608  21400740.13508
   4217834.00908   3286619.16008  21276743.26008  21276744.08608
   4390834.12008   3421424.31108  21776814.69008  21776816.40808
   5790433.67308   4512011.74507  24278152.34608  24278157.10807
  -3449539.08207  -2687954.24307  24128599.46807  24128601.61507
 -12081510.96208  -9414166.37508  20204853.79508  20204854.73208
 93 04 09 14 58 00.0000000  0  7 29 22 25 15 01 14 18
  -9424280.04708  -7343596.35808  21413089.28708  21413089.59108
 -12622846.24008  -9835982.65408  21340671.82208  21340673.47408
   4443546.16208   3462498.51408  21319694.98508  21319695.90108
   4641644.22008   3616860.53108  21824542.49008  21824544.19008
   5977041.79508   4657420.03207  24313663.19708  24313668.11907
 -12380456.89409  -9647111.32208  20147966.34109  20147967.29308
  -3828366.64408  -2983144.64408  24056511.20208  24056513.28708
 93 04 09 15 00 00.0000000  0  7 29 22 25 15 01 14 18
  -9680709.93208  -7543411.91508  21364292.39608  21364292.70808
 -12931419.89008 -10076429.59108  21281952.15108  21281953.81308
   4673193.78908   3641444.47008  21363395.61808  21363396.63708
   4897118.90508   3815931.47408  21873157.87408  21873159.70608
   6163794.19908   4802940.70007  24349201.58308  24349206.79607
 -12672614.54009  -9874766.68408  20092370.63909  20092371.60208
  -4206669.77108  -3277926.34408  23984522.47308  23984524.64608
 93 04 09 15 02 00.0000000  0  7 29 22 25 15 01 14 18
  -9934665.82208  -7741299.69408  21315966.28608  21315966.62908
 -13232319.23508 -10310896.57808  21224692.87908  21224694.65508
   4907139.04408   3823739.23108  21407914.12908  21407915.14508
   5157478.61308   4018808.94208  21922702.90308  21922704.71208
   6351576.51907   4949263.89407  24384935.88407  24384941.14107
 -12957677.48709 -10096893.71208  20038125.03909  20038126.04008
  -4584175.31108  -3572086.44708  23912685.69908  23912687.68208
 93 04 09 15 04 00.0000000  0  7 29 22 25 15 14 01 18
 -10186008.57508  -7937151.23808  21268137.39208  21268137.74308
 -13525037.94608 -10538989.06408  21168990.39208  21168992.09808
   5145719.38508   4009645.73608  21453314.61008  21453315.62608
   5422855.76408   4225596.07908  21973202.67908  21973204.57808
 -13235676.16909 -10313516.10408  19985223.67709  19985224.68308
   6540362.98807   5096369.56207  24420861.22007  24420866.75707
  -4960203.41008  -3865095.29908  23841129.86108  23841131.76708
 93 04 09 15 06 00.0000000  0  7 29 22 25 15 14 01 18
 -10435176.43508  -8131308.06008  21220722.36308  21220722.67208
 -13809151.34908 -10760376.11208  21114925.45608  21114927.11808
   5388809.20608   4199066.10608  21499573.33708  21499574.49108
   5693305.45808   4436335.85608  22024667.72608  22024669.72908
 -13505641.06209 -10523878.41808  19933851.08709  19933852.15308
   6730702.08507   5244685.10007  24457082.02007  24457087.94807
  -5334928.60708  -4157089.00308  23769822.02408  23769824.11508
 93 04 09 15 08 00.0000000  0  7 29 22 25 15 14 01 18
 -10682031.02608  -8323662.33408  21173747.49308  21173747.90008
 -14084488.60508 -10974924.62108  21062530.55108  21062532.14108
   5636173.82508   4391817.46908  21546645.53408  21546646.75808
   5968632.50308   4650876.15308  22077060.92408  22077062.95908
 -13767560.16109 -10727971.28408  19884009.66009  19884010.69508
   6922781.80207   5394356.97507  24493634.15307  24493640.05907
  -5708308.46408  -4448034.44408  23698770.35508  23698772.33808
 93 04 09 15 10 00.0000000  0  7 29 22 25 15 14 01 18
 -10926125.81708  -8513866.12108  21127297.87908  21127298.25008
 -14351124.31408 -11182692.72208  21011791.53508  21011793.09308
   5887685.73908   4587800.48408  21594506.88508  21594508.22008
   6248402.09108   4868878.15508  22130299.46908  22130301.68208
 -14021509.70709 -10925854.10608  19835684.71409  19835685.77908
   7116314.11607   5545160.70607  24530462.73807  24530468.61407
  -6080280.06908  -4737882.56808  23627986.73108  23627988.62408
 93 04 09 15 12 00.0000000  0  7 29 25 15 01 18 14 22
 -11167527.42408  -8701971.35408  21081360.79108  21081361.08808
   6143397.34808   4787055.96808  21643167.46308  21643168.90008
   6532620.66308   5090346.89508  22184384.72708  22184386.97608
   7311210.56907   5697027.39807  24567550.89107  24567556.82407
  -6450635.07808  -5026471.01608  23557510.48208  23557512.61208
 -14267012.45509 -11117155.01508  19788967.25109  19788968.31308
 -14608692.67208 -11383395.37908  20962777.92908  20962779.50108
 93 04 09 15 14 00.0000000  0  7 29 25 15 18 01 14 22
 -11406504.74408  -8888187.53008  21035884.97408  21035885.33708
   6403172.38308   4989477.76108  21692601.25108  21692602.78308
   6821008.58208   5315064.46308  22239263.32308  22239265.77608
  -6819725.02008  -5314073.67308  23487275.04208  23487277.30208
   7507549.83107   5850018.27507  24604913.51307  24604919.87907
 -14504151.80209 -11301939.00508  19743841.18409  19743842.25808
 -14857123.68208 -11576978.00008  20915503.02508  20915504.66908
 93 04 09 15 16 00.0000000  0  7 25 15 18 01 14 29 22
   6666699.85808   5194823.54308  21742749.11308  21742750.69108
   7113347.88608   5542861.03108  22294893.91608  22294896.38008
  -7187354.47808  -5600538.15308  23417317.54108  23417319.65108
   7705537.08507   6004293.30907  24642589.82507  24642596.06607
 -14732701.02309 -11480029.37808  19700349.72709  19700350.85708
 -11642970.97408  -9072447.00208  20990887.00908  20990887.40508
 -15096286.44008 -11763338.58108  20869991.86708  20869993.58008
 93 04 09 15 18 00.0000000  0  7 25 15 18 01 14 29 22
   6933878.13508   5403014.10408  21793591.61708  21793593.32608
   7409663.68808   5773756.14808  22351281.20608  22351283.63408
  -7553427.23008  -5885789.61308  23347656.17008  23347658.29708
   7905429.60607   6160052.95607  24680628.58807  24680635.12807
 -14952242.81409 -11651100.97408  19658572.38009  19658573.54108
 -11876378.01508  -9254322.67408  20946471.14608  20946471.65508
 -15325815.18608 -11942192.14508  20826313.92808  20826315.66508
 93 04 09 15 20 00.0000000  0  7 25 15 18 01 14 29 22
   7205132.60408   5614380.88608  21845209.93708  21845211.61208
   7709971.82208   6007762.17308  22408428.22508  22408430.66408
  -7917612.21208  -6169570.05308  23278353.93208  23278356.04808
   8106967.53107   6317094.75907  24718980.52107  24718987.18007
 -15162552.69909 -11814978.87108  19618551.78209  19618552.94308
 -12107111.56508  -9434115.10508  20902564.07008  20902564.58808
 -15545359.38608 -12113265.54908  20784536.09508  20784537.82608
 93 04 09 15 22 00.0000000  0  7 25 15 18 01 14 29 22
   7479804.67308   5828410.69208  21897478.58508  21897480.31708
   8013712.23208   6244442.67708  22466228.30808  22466230.85308
  -8280165.52408  -6452079.10108  23209362.36308  23209364.46008
   8310394.05207   6475608.21607  24757691.88207  24757698.74107
 -15364185.50209 -11972095.41008  19580182.43209  19580183.60908
 -12334905.89608  -9611617.23708  20859216.27008  20859216.83208
 -15755151.00208 -12276739.57308  20744614.10508  20744615.89908
 93 04 09 15 24 00.0000000  0  7 25 15 18 01 14 29 22
   7758395.02608   6045493.70108  21950492.92508  21950494.79208
   8321067.23608   6483939.72808  22524716.26908  22524719.05608
  -8640790.47908  -6733085.52508  23140737.72508  23140739.83908
   8515891.40507   6635735.27607  24796797.18907  24796804.29307
 -15556231.38109 -12121741.61908  19543637.37909  19543638.59408
 -12559554.90308  -9786668.46408  20816467.09208  20816467.62608
 -15954681.39608 -12432217.82508  20706644.81508  20706646.53108
 93 04 09 15 26 00.0000000  0  7 25 15 18 14 01 29 22
   8041124.03508   6265801.63408  22004294.71308  22004296.67308
   8632386.50408   6726525.78908  22583958.74608  22583961.44608
  -8999035.37208  -7012237.39608  23072566.06108  23072568.12908
 -15738112.19909 -12263467.01908  19509026.66509  19509027.90308
   8724233.34207   6798078.84706  24836443.79107  24836451.18006
 -12780753.98108  -9959031.44708  20774374.36108  20774374.89008
 -16143287.57008 -12579183.69208  20670754.27608  20670756.01408
 93 04 09 15 28 00.0000000  0  6 25 15 18 14 29 22
   8327738.05608   6489136.83408  22058835.97008  22058837.88808
   8947390.55308   6971983.08908  22643902.30108  22643905.12508
  -9355035.62408  -7289640.19608  23004821.57908  23004823.54208
 -15909680.98309 -12397157.06608  19476378.33109  19476379.57108
 -12998139.88108 -10128423.11908  20733007.29708  20733007.81508
 -16320939.28908 -12717613.60908  20636948.38108  20636949.99508
 93 04 09 15 30 00.0000000  0  7 25 15 18 19 14 29 22
   8618091.52308   6715385.86508  22114088.70908  22114090.80508
   9265893.16108   7220166.55408  22704511.61208  22704514.52908
  -9708401.42308  -7564990.14908  22937578.22508  22937580.21508
        -0.44417        -0.24917  24045765.87417  24045769.56717
 -16070624.58509 -12522567.74908  19445751.82009  19445753.07608
 -13211702.10508 -10294835.30408  20692367.70408  20692368.25908
 -16487521.83708 -12847418.18708  20605248.76108  20605250.46408
 93 04 09 15 32 00.0000000  0  7 25 15 18 14 19 29 22
   8912326.18608   6944659.18008  22170080.03408  22170082.19208
   9587520.89508   7470785.14008  22765715.67208  22765718.74408
 -10059427.61808  -7838517.06408  22870780.12108  22870782.42208
 -16221447.16209 -12640091.90608  19417051.26309  19417052.55608
   -432618.84407   -337105.47807  23963441.24907  23963444.99507
 -13421828.75508 -10458570.43808  20652382.09408  20652382.61508
 -16643112.89708 -12968657.98808  20575640.83308  20575642.46608
 93 04 09 15 34 00.0000000  0  7 25 15 18 14 19 29 22
   9210157.34508   7176734.94808  22226755.86908  22226758.03008
   9912335.91108   7723887.32508  22827526.24908  22827529.45608
 -10408098.55708  -8110208.71008  22804430.30708  22804432.46208
 -16361586.80909 -12749291.72008  19390383.73209  19390385.01208
   -860516.32907   -670532.01307  23882014.93907  23882018.43907
 -13628105.75408 -10619305.83308  20613128.97008  20613129.54208
 -16787366.50208 -13081063.43308  20548190.30208  20548191.94608
 93 04 09 15 36 00.0000000  0  7 25 15 14 18 19 29 22
   9510927.44108   7411100.78308  22283990.97908  22283993.14308
  10239703.32508   7978978.36908  22889822.51508  22889825.90908
 -16491406.07109 -12850449.66808  19365680.05609  19365681.36308
 -10754684.95208  -8380276.04708  22738477.06708  22738479.31108
  -1283815.66607  -1000375.55307  23801463.69007  23801467.14407
 -13831076.68908 -10777465.06308  20574504.93108  20574505.54508
 -16920636.38108 -13184910.11708  20522829.86508  20522831.62508
 93 04 09 15 38 00.0000000  0  7 25 15 14 18 29 22 19
   9815191.42708   7648189.12708  22341890.74108  22341893.12108
  10569741.32008   8236150.38208  22952627.06808  22952630.48308
 -16610796.24809 -12943481.07508  19342960.92309  19342962.26208
 -11098676.83008  -8648321.66808  22673017.72108  22673019.75508
 -14030122.35808 -10932565.65608  20536627.90208  20536628.46708
 -17042535.97808 -13279896.85208  20499633.17808  20499634.84808
  -1702703.23107  -1326781.39707  23721751.85007  23721755.50107
 93 04 09 15 40 00.0000000  0  7 25 15 14 18 29 22 19
  10122862.67508   7887932.46208  22400438.98008  22400441.52308
  10902300.64208   8495287.03008  23015911.28008  23015914.93308
 -16718998.26309 -13027794.44208  19322370.85009  19322372.22308
 -11440030.17008  -8914311.32108  22608060.31808  22608062.46108
 -14225345.39808 -11084687.58108  20499478.25608  20499478.83908
 -17152951.36508 -13365934.83208  20478621.86008  20478623.59708
  -2116497.52107  -1649218.55207  23643009.44607  23643013.33307
 93 04 09 15 42 00.0000000  0  7 25 15 14 18 29 22 19
  10433370.32008   8129885.96708  22459527.00208  22459529.73008
  11236908.92608   8756020.26708  23079585.46908  23079589.19208
 -16816429.48909 -13103714.99308  19303830.41309  19303831.80208
 -11779209.13808  -9178606.64408  22543516.80708  22543518.82108
 -14416938.44908 -11233980.95108  20463019.29708  20463019.95908
 -17252102.84008 -13443195.78608  20459753.99908  20459755.73408
  -2525681.75808  -1968063.54807  23565144.57608  23565148.09807
 93 04 09 15 44 00.0000000  0  7 25 15 14 18 29 22 19
  10746344.07908   8373761.09808  22519084.36708  22519087.24708
  11573239.98008   9018095.89608  23143587.65508  23143591.32408
 -16903480.11609 -13171546.75708  19287265.33709  19287266.73408
 -12116320.01308  -9441290.43408  22479366.77308  22479368.72608
 -14604741.11108 -11380320.76808  20427281.79608  20427282.42708
 -17340069.32408 -13511741.15008  20443014.63508  20443016.37308
  -2930074.25808  -2283174.75007  23488191.35908  23488194.87207
 93 04 09 15 46 00.0000000  0  7 25 15 14 18 29 22 19
  11061764.80908   8619542.92308  22579107.30108  22579110.40208
  11911061.97108   9281333.29407  23207873.59408  23207877.26907
 -16980048.74809 -13231210.72308  19272694.85609  19272696.31608
 -12451327.54108  -9702335.28808  22415616.88508  22415618.93508
 -14789198.95408 -11524054.23308  20392180.70108  20392181.37308
 -17416848.56708 -13571569.19508  20428404.03708  20428405.79908
  -3330042.59708  -2594838.56807  23412080.05708  23412083.72007
 93 04 09 15 48 00.0000000  0  7 25 15 14 18 29 22 19
  11380658.14108   8868030.63708  22639791.00308  22639794.35808
  12250574.45908   9545887.95707  23272480.95108  23272484.95007
 -17045451.36209 -13282173.90108  19260249.27009  19260250.74708
 -12783763.83308  -9961376.55408  22352356.40908  22352358.47108
 -14969920.18308 -11664876.04908  20357790.63508  20357791.34308
 -17482013.13308 -13622346.86208  20416003.80208  20416005.48208
  -3724918.29708  -2902534.08807  23336937.88408  23336941.79307
 93 04 09 15 50 00.0000000  0  7 25 15 14 18 29 22 19
  11701702.34908   9118194.32708  22700884.11708  22700887.57608
  12591449.94807   9811504.67007  23337347.68707  23337351.95307
 -17099694.14209 -13324441.12708  19249927.30909  19249928.80208
 -13113865.37308 -10218598.56108  22289540.13608  22289542.23508
 -15146441.92208 -11802425.54508  20324199.72108  20324200.45308
 -17535672.62508 -13664159.52108  20405792.80508  20405794.48708
  -4114412.62508  -3206036.32107  23262819.72108  23262823.42107
 93 04 09 15 52 00.0000000  0  7 25 15 14 18 29 22 19
  12024723.83208   9369898.73008  22762353.80408  22762357.25108
  12933102.10207  10077726.56707  23402362.32907  23402366.77507
 -17143236.88009 -13358370.66008  19241641.46509  19241643.00208
 -13441928.99208 -10474232.57908  22227111.75608  22227113.93508
 -15319279.68108 -11937104.40708  20291309.88108  20291310.66908
 -17578203.45908 -13697300.50108  20397699.51008  20397701.24008
  -4499559.08908  -3506150.50607  23189528.84208  23189532.48807
 93 04 09 15 54 00.0000000  0  7 25 15 18 14 19 29 22
  12349740.02608   9623157.48108  22824202.75608  22824206.39108
  13275465.72607  10344502.84407  23467512.45807  23467516.97607
 -13767818.65108 -10728172.59908  22165097.07008  22165099.32208
 -17175930.76609 -13383846.55408  19235420.23709  19235421.79508
  -4879944.12108  -3802554.39107  23117143.77508  23117147.63607
 -15488847.08908 -12069234.94808  20259042.35108  20259043.14108
 -17609471.81208 -13721665.53508  20391749.36308  20391751.12808
 93 04 09 15 56 00.0000000  0  6 18 25 19 14 29 22
 -14091378.57708 -10980297.25708  22103525.53008  22103527.89408
  12677083.03008   9878229.27508  22886494.53708  22886498.27308
  -5255300.85208  -4095040.14507  23045715.79108  23045719.50607
 -17197851.44509 -13400927.73508  19231248.91109  19231250.53308
 -15654657.23408 -12198437.74508  20227489.84708  20227490.59708
 -17629425.67908 -13737214.09508  20387952.36508  20387954.20008
 93 04 09 15 58 00.0000000  0  6 18 25 19 14 29 22
 -14412759.94208 -11230724.38208  22042368.95508  22042371.16408
  13006155.14508  10134648.42608  22949115.51408  22949119.32908
  -5625655.24408  -4383628.05608  22975239.82008  22975243.62808
 -17208612.12409 -13409312.81308  19229201.33509  19229202.96808
 -15816163.21708 -12324286.65908  20196756.39908  20196757.13508
 -17637958.73608 -13743863.33408  20386328.70508  20386330.44008
 93 04 09 16 00 00.0000000  0  7 18 25 15 14 19 29 22
 -14731361.96708 -11478985.77408  21981741.02808  21981743.31808
  13336962.48308  10392419.70408  23012066.52908  23012070.54608
        -0.58817        -0.69317  23663522.17017  23663527.03717
 -17208559.52609 -13409271.95308  19229211.41809  19229213.06708
  -5990836.17808  -4668184.64108  22905748.18208  22905751.93508
 -15974004.14908 -12447279.68908  20166720.31908  20166721.07208
 -17635167.64308 -13741688.57508  20386859.88208  20386861.73508
 93 04 09 16 02 00.0000000  0  7 18 25 15 19 14 29 22
 -15047871.46708 -11725616.60008  21921511.39908  21921513.68308
  13669508.07508  10651545.42508  23075348.36108  23075352.72208
    343622.22207    267756.79007  23728911.87007  23728916.93907
  -6351250.11708  -4949026.62008  22837163.70708  22837167.42608
 -17197446.20009 -13400612.36408  19231326.31709  19231328.01808
 -16128127.98508 -12567376.28408  20137391.61708  20137392.38108
 -17621156.69908 -13730771.06808  20389526.11308  20389527.99708
 93 04 09 16 04 00.0000000  0  7 18 25 15 14 19 29 22
 -15362368.21508 -11970679.04108  21861664.57608  21861666.84408
  14003375.23108  10911700.94708  23138881.55808  23138886.22508
    686780.04607    535151.96307  23794213.06407  23794218.22907
 -17175623.76509 -13383608.01208  19235479.08809  19235480.81508
  -6706842.57408  -5226111.55608  22769496.71408  22769500.45108
 -16278217.66108 -12684329.37708  20108830.54308  20108831.38308
 -17596200.30008 -13711324.62008  20394275.25408  20394277.13908
 93 04 09 16 06 00.0000000  0  7 18 25 15 19 14 29 22
 -15674908.76608 -12214217.18408  21802190.12408  21802192.37408
  14338625.59807  11172934.18708  23202678.15207  23202682.82308
   1029144.29507    801928.76407  23859363.25007  23859368.67607
  -7057676.08808  -5499488.26708  22702735.20708  22702738.99508
 -17143384.94009 -13358486.98908  19241614.08809  19241615.84908
 -16424871.05308 -12798604.83608  20080923.38708  20080924.29108
 -17560481.60508 -13683491.97608  20401072.42508  20401074.28008
 93 04 09 16 08 00.0000000  0  7 18 25 15 19 14 29 22
 -15985102.63408 -12455926.74808  21743162.29108  21743164.58208
  14675410.91807  11435363.59608  23266766.88307  23266771.84308
   1371157.04507   1068431.66607  23924446.67907  23924451.89107
  -7403219.71308  -5768743.00008  22636980.51108  22636984.10808
 -17099868.21409 -13324577.99808  19249895.10809  19249896.87508
 -16567260.02308 -12909557.36708  20053827.70708  20053828.66108
 -17513423.69208 -13646823.58508  20410027.33208  20410029.21808
 93 04 09 16 10 00.0000000  0  6 18 19 25 14 29 22
 -16293204.26808 -12696006.00408  21684532.59008  21684534.83508
  -7743995.11308  -6034282.25508  22572133.04808  22572136.61508
  15013208.87008  11698581.95008  23331048.44108  23331053.36308
 -17045747.72208 -13282406.35108  19260194.08608  19260195.94408
 -16705615.53808 -13017366.94608  20027499.57808  20027500.57008
 -17455505.06908 -13601692.32708  20421049.02208  20421050.96808
 93 04 09 16 12 00.0000000  0  7 18 19 25 15 14 29 22
 -16598137.60108 -12933616.43408  21626505.69308  21626507.91008
  -8079614.46208  -6295803.82208  22508266.83008  22508270.51808
  15352258.08508  11962775.33207  23395568.13408  23395573.08907
        -0.76217        -0.82517  24054095.90817  24054101.46917
 -16980621.57708 -13231658.85608  19272587.23108  19272589.15708
 -16840141.64608 -13122192.58508  20001900.21208  20001901.22408
 -17386461.17508 -13547892.04408  20434187.82208  20434189.71708
 93 04 09 16 14 00.0000000  0  7 18 19 25 15 14 29 22
 -16901014.77208 -13169624.65108  21568870.17908  21568872.39908
  -8410146.50708  -6553361.25508  22445368.70108  22445372.42808
  15692520.52007  12227914.03807  23460318.43307  23460323.82907
    339049.37207    264193.59407  24118615.36707  24118621.14307
 -16904887.56308 -13172645.49808  19286999.06508  19287001.00408
 -16970524.29408 -13223789.54808  19977089.32408  19977090.30608
 -17306578.03008 -13485645.56908  20449389.13208  20449391.12108
 93 04 09 16 16 00.0000000  0  6 18 19 25 29 14 22
 -17201947.32708 -13404117.57508  21511604.63308  21511606.91408
  -8735926.10808  -6807215.44508  22383374.84108  22383378.50308
  16033162.22008  12493348.27907  23525141.23408  23525146.49507
 -17096999.92208 -13322342.09208  19953021.90708  19953022.92608
 -16818544.27808 -13105365.20308  19303429.77908  19303431.79108
 -17216152.82508 -13415184.49908  20466596.59108  20466598.58508
 93 04 09 16 18 00.0000000  0  6 18 19 25 29 14 22
 -17500109.30208 -13636451.63008  21454866.36408  21454868.52908
  -9056522.81008  -7057031.02408  22322367.34108  22322370.98408
  16374915.96507  12759648.95607  23590175.27607  23590181.04807
 -17219044.02508 -13417441.51708  19929797.81408  19929798.80408
 -16721296.25908 -13029587.71108  19321935.62308  19321937.66408
 -17114806.18408 -13336213.23508  20485882.33008  20485884.33208
 93 04 09 16 20 00.0000000  0  7 18 19 25 15 29 14 22
 -17795799.41608 -13866859.57008  21398598.40708  21398600.66108
  -9372012.05908  -7302866.75008  22262331.62008  22262335.22008
  16717420.14107  13026534.41007  23655352.22107  23655358.17607
        -0.90617        -0.79317  24310414.76417  24310420.63517
 -17336819.63008 -13509214.83208  19907385.92708  19907386.97708
 -16613588.27708 -12945659.59008  19342431.92508  19342434.00608
 -17003004.95308 -13249095.57808  20507157.52808  20507159.61108
 93 04 09 16 22 00.0000000  0  7 18 19 25 29 14 22 15
 -18089173.97708 -14095463.17808  21342771.06408  21342773.43008
  -9682770.60708  -7545016.24908  22203196.24708  22203199.77908
  17060236.64607  13293663.22107  23720588.81707  23720595.32107
 -17450659.33108 -13597921.18708  19885722.98508  19885724.12008
 -16495699.26108 -12853798.20708  19364865.52608  19364867.67608
 -16881069.41908 -13154081.09008  20530361.21008  20530363.37908
    332054.98907    258743.30106  24373603.33707  24373609.63306
 93 04 09 16 24 00.0000000  0  8 18 19 29 14 22 25 15 28
 -18379818.01308 -14321939.12508  21287463.34208  21287465.67208
  -9988435.45808  -7783196.66208  22145030.15708  22145033.80808
 -17559925.08408 -13683063.44608  19864930.51008  19864931.60108
 -16367324.54408 -12753766.16508  19389294.58708  19389296.75508
 -16748515.19908 -13050792.30408  20555585.51108  20555587.84208
  17403960.43707  13561499.11007  23785997.93307  23786004.38607
    662289.94707    516068.37006  24436445.68707  24436452.07206
        -0.32217        -0.16217  24454631.15917  24454639.60517
 93 04 09 16 26 00.0000000  0  8 18 19 29 14 22 25 15 28
 -18668977.81308 -14547258.51108  21232438.14008  21232440.51308
 -10289780.45608  -8018010.93908  22087686.07808  22087689.67408
 -17665471.42608 -13765307.46608  19844845.77508  19844846.94008
 -16229023.98008 -12645999.68808  19415612.45908  19415614.66508
 -16606426.68008 -12940074.19308  20582624.23908  20582626.65508
  17747387.16807  13829103.53307  23851350.56407  23851357.30807
    989565.08506    771087.00406  24498724.79306  24498731.52806
   -282341.43507   -220005.63707  24400903.10607  24400911.30207
 93 04 09 16 28 00.0000000  0  7 18 19 25 29 14 22 28
 -18956816.68508 -14771548.60508  21177664.33408  21177666.78908
 -10587410.12708  -8249930.10308  22031049.05008  22031052.56308
  18089835.89807  14095945.89307  23916516.98507  23916523.93707
 -17768137.20508 -13845306.89208  19825309.21808  19825310.43108
 -16081630.84708 -12531148.09708  19443660.57208  19443662.83008
 -16455458.00808 -12822436.49008  20611352.78008  20611355.32608
   -565470.17408   -440625.08307  24347025.25608  24347033.38607
 93 04 09 16 30 00.0000000  0  7 18 19 25 28 29 14 22
 -19242358.15408 -14994048.50908  21123327.59608  21123330.09508
 -10880959.38808  -8478669.68508  21975188.41408  21975192.00708
  18432236.69507  14362750.98907  23981674.21707  23981681.29607
   -848621.23107   -661262.09407  24293142.94007  24293151.25107
 -17867176.34408 -13922480.35908  19806462.79708  19806464.02608
 -15924710.64208 -12408872.82008  19473521.67008  19473523.97608
 -16295102.60008 -12697484.46208  20641867.59108  20641870.17908
 93 04 09 16 32 00.0000000  0  7 18 19 25 28 29 14 22
 -19525505.47608 -15214682.83908  21069446.57308  21069449.02608
 -11169240.60108  -8703304.36308  21920330.32008  21920333.84308
  18774486.05507  14629438.10807  24046802.62907  24046809.88007
  -1131262.79207   -881502.18408  24239358.15907  24239366.46508
 -17961563.07808 -13996028.58708  19788501.71108  19788502.96308
 -15757798.76408 -12278811.83708  19505284.13108  19505286.42908
 -16124933.72408 -12564885.58708  20674249.88908  20674252.51408
 93 04 09 16 34 00.0000000  0  7 18 19 25 28 29 14 22
 -19805584.23608 -15432926.07008  21016149.33508  21016151.80208
 -11452335.00308  -8923897.41008  21866459.18808  21866462.80108
  19117014.49607  14896342.61207  24111984.34007  24111991.61107
  -1412676.90407  -1100785.79407  24185806.74807  24185814.89907
 -18051127.21808 -14065818.93708  19771458.25108  19771459.51608
 -15580639.75108 -12140766.08808  19538996.53708  19538998.92808
 -15944861.68808 -12424569.97308  20708516.67508  20708519.28208
 93 04 09 16 36 00.0000000  0  7 19 25 28 29 14 22 18
 -11730601.23808  -9140728.29808  21813506.85408  21813510.48908
  19459773.32407  15163426.68407  24177209.85007  24177217.31707
  -1693208.97407  -1319382.00007  24132423.15207  24132431.27007
 -18136114.23708 -14132042.71308  19755285.88808  19755287.22908
 -15393745.56108 -11995134.49308  19574561.52308  19574563.97508
 -15755216.75008 -12276794.95208  20744605.17408  20744607.74008
 -20082794.21608 -15648933.90708  20963398.06008  20963400.58908
 93 04 09 16 38 00.0000000  0  7 19 25 28 29 14 22 18
 -12003764.51008  -9353582.80908  21761525.73208  21761529.31208
  19803035.90607  15430903.14107  24242531.12407  24242538.92507
  -1972311.93907  -1536864.55207  24079311.36807  24079319.53707
 -18216140.13108 -14194400.67308  19740057.55008  19740058.87908
 -15196906.20808 -11841753.42708  19612018.99508  19612021.51908
 -15555821.47208 -12121422.27808  20782548.99508  20782551.60608
 -20357151.63108 -15862718.95708  20911189.56508  20911192.16608
 93 04 09 16 40 00.0000000  0  6 19 28 29 14 22 18
 -12272982.68908  -9563363.22308  21710295.22008  21710298.70908
  -2250721.34207  -1753806.53507  24026331.67707  24026339.72707
 -18292291.03608 -14253739.15208  19725566.60608  19725567.91508
 -14991107.99208 -11681391.43908  19651181.24208  19651183.88908
 -15347994.24808 -11959479.25508  20822097.38808  20822100.07908
 -20629437.30708 -16074889.69308  20859375.48308  20859378.07708
 93 04 09 16 42 00.0000000  0  6 19 28 29 14 22 18
 -12538572.96208  -9770316.68408  21659755.08408  21659758.66308
  -2528993.29507  -1970641.43707  23973377.93507  23973385.92307
 -18364688.91808 -14310153.20408  19711789.83108  19711791.19208
 -14776889.24008 -11514468.00308  19691945.88408  19691948.57608
 -15132239.26308 -11791358.76908  20863154.40708  20863157.20908
 -20900105.05108 -16285799.70808  20807869.18808  20807871.72608
 93 04 09 16 44 00.0000000  0  6 19 28 29 14 22 18
 -12800096.24408  -9974101.07608  21609988.88408  21609992.42208
  -2806377.93307  -2186784.96207  23920592.97407  23920600.93007
 -18433220.49408 -14363554.54308  19698748.80008  19698750.21608
 -14554405.39408 -11341104.22308  19734283.44108  19734286.11408
 -14908299.81608 -11616860.78608  20905768.88208  20905771.79708
 -21168728.71508 -16495116.91608  20756751.86408  20756754.42208
 93 04 09 16 46 00.0000000  0  6 19 28 29 14 22 18
 -13057439.39208 -10174628.21908  21561018.14808  21561021.66608
  -3082830.37108  -2402202.07207  23867985.60208  23867993.34507
 -18498058.35208 -14414077.65408  19686410.64608  19686412.08208
 -14323366.87708 -11161074.47208  19778248.77708  19778251.54608
 -14676439.88808 -11436191.02208  20949890.57808  20949893.56108
 -21435153.36608 -16702720.56808  20706052.92508  20706055.53808
 93 04 09 16 48 00.0000000  0  6 22 19 28 29 14 18
 -14436431.44908 -11249171.78508  20995562.88208  20995565.96608
 -13310478.78908 -10371801.75908  21512866.21908  21512869.83108
  -3357731.14608  -2616410.13607  23815673.48708  23815681.36307
 -18558480.88308 -14461160.25608  19674912.67108  19674914.13708
 -14083855.10608 -10974442.18908  19823826.54908  19823829.32908
 -21699124.51608 -16908412.38308  20655820.84008  20655823.47208
 93 04 09 16 50 00.0000000  0  6 22 19 28 29 14 18
 -14188158.26208 -11055712.50108  21042807.98808  21042811.10608
 -13559214.30708 -10565621.66308  21465533.46008  21465537.04008
  -3631003.27808  -2829349.20707  23763671.40608  23763678.96307
 -18613743.65808 -14504222.28808  19664396.61708  19664398.12208
 -13835835.26508 -10781180.25608  19871023.35408  19871026.20808
 -21959981.95108 -17111677.92908  20606181.32208  20606183.99808
 93 04 09 16 52 00.0000000  0  7 22 19 31 28 29 14 18
 -13931893.07808 -10856025.71208  21091573.96008  21091577.05508
 -13803616.27408 -10756064.79008  21419025.36008  21419029.03708
        -0.59417        -0.06717  24211219.24317  24211228.70517
  -3902263.81808  -3040720.85007  23712052.09008  23712059.57507
 -18664224.94108 -14543558.48208  19654790.46708  19654792.02808
 -13579107.67308 -10581133.07208  19919877.21608  19919880.17008
 -22218027.11408 -17312752.10408  20557077.10708  20557079.66808
 93 04 09 16 54 00.0000000  0  7 22 19 31 28 29 14 18
 -13668275.11708 -10650609.48208  21141739.05208  21141742.27408
 -14044165.13908 -10943505.48708  21373250.44808  21373254.12208
   -313246.79207   -244087.43307  24151609.95207  24151619.35107
  -4171851.36408  -3250788.79407  23660751.02808  23660758.49607
 -18710449.54408 -14579577.78208  19645994.32208  19645995.90808
 -13314598.62808 -10375022.42908  19970211.78208  19970214.84308
 -22473502.10608 -17511823.58208  20508461.82508  20508464.38008
 93 04 09 16 56 00.0000000  0  7 22 19 31 28 29 14 18
 -13397125.07708 -10439324.10808  21193337.46508  21193340.78908
 -14280413.30308 -11127594.96008  21328293.96508  21328297.61908
   -628664.64507   -489866.94507  24091587.28507  24091596.67007
  -4439191.18308  -3459105.26207  23609877.77108  23609885.18407
 -18752072.86008 -14612011.65208  19638073.74008  19638075.40208
 -13042088.04608 -10162676.82508  20022069.11408  20022072.16608
 -22725926.27008 -17708517.79008  20460427.15108  20460429.73808
 93 04 09 16 58 00.0000000  0  7 22 19 31 29 14 28 18
 -13118340.51908 -10222089.77008  21246388.68108  21246392.12608
 -14512272.91808 -11308264.80208  21284172.61008  21284176.19608
   -945839.04707   -737015.19707  24031230.56607  24031239.81707
 -18788495.70608 -14640393.22008  19631142.81608  19631144.50408
 -12761211.93208  -9943812.63208  20075518.27108  20075521.40808
  -4703810.42808  -3665301.82307  23559522.06508  23559529.42207
 -22975227.33608 -17902778.43808  20412986.72708  20412989.37808
 93 04 09 17 00 00.0000000  0  8 22 19 31 27 29 14 28 18
 -12832737.75808  -9999542.58708  21300737.46808  21300740.90808
 -14740088.57908 -11485783.53408  21240820.69808  21240824.30408
  -1265268.58108   -985920.66607  23970444.66208  23970453.62707
        -0.96617        -0.10617  24406002.04117  24406007.83017
 -18820354.93008 -14665218.72308  19625080.14708  19625081.90308
 -12472986.11608  -9719221.41508  20130366.04708  20130369.28808
  -4966467.07307  -3869969.15608  23509539.99107  23509547.71208
 -23221972.57408 -18095047.53308  20366032.79508  20366035.46608
 93 04 09 17 02 00.0000000  0  8 22 19 31 27 29 14 28 18
 -12538888.10708  -9770569.29008  21356655.44608  21356659.14108
 -14962500.88708 -11659091.85908  21198497.12408  21198500.69508
  -1585204.02608  -1235220.47907  23909562.56208  23909571.49107
   -328239.78007   -255770.86507  24343540.36207  24343546.25007
 -18846080.51708 -14685264.79908  19620185.06808  19620186.79708
 -12175954.93208  -9487768.89408  20186889.53308  20186892.87008
  -5224947.30208  -4071382.11208  23460352.86208  23460360.17708
 -23464458.42408 -18283997.61708  20319889.34308  20319892.04008
 93 04 09 17 04 00.0000000  0  8 22 19 31 27 29 14 28 18
 -12236317.41108  -9534800.37208  21414233.10108  21414236.98108
 -15179198.66208 -11827947.27008  21157260.91408  21157264.46008
  -1904841.73708  -1484288.41507  23848737.17908  23848746.06407
   -652815.40107   -508687.17507  24281775.98107  24281781.83907
 -18864920.62608 -14699945.56208  19616599.99208  19616601.76908
 -11869589.01608  -9249042.57008  20245189.24508  20245192.65408
  -5478701.89708  -4269112.74708  23412064.84508  23412072.01908
 -23701460.45108 -18468674.57508  20274789.39508  20274792.08808
 93 04 09 17 06 00.0000000  0  8 22 19 31 27 29 14 28 18
 -11926766.19308  -9293592.08508  21473139.15808  21473143.03108
 -15391442.33908 -11993331.95008  21116872.36708  21116875.88608
  -2225593.67708  -1734224.71808  23787700.05208  23787708.68608
   -975267.23507   -759948.47307  24220415.36907  24220421.26407
 -18878397.72208 -14710447.34008  19614035.46408  19614037.30608
 -11555755.37308  -9004497.23408  20304910.10008  20304913.51608
  -5729290.92108  -4464376.70808  23364379.16708  23364386.19708
 -23934907.97708 -18650581.77008  20230365.84008  20230368.57608
 93 04 09 17 08 00.0000000  0  8 22 19 31 27 28 29 14 18
 -11611538.32008  -9047960.44208  21533125.33808  21533129.42608
 -15600540.92808 -12156265.88008  21077082.12908  21077085.66808
  -2548426.06608  -1985782.19408  23726266.88708  23726275.59308
  -1296396.07807  -1010178.77907  24159306.65107  24159312.58607
  -5977385.02708  -4657696.51608  23317168.09308  23317175.20508
 -18887676.54708 -14717677.73508  19612269.92008  19612271.72808
 -11235794.50908  -8755177.45408  20365796.87308  20365800.43408
 -24165970.57908 -18830630.58508  20186396.08708  20186398.83508
 93 04 09 17 10 00.0000000  0  8 22 19 31 27 28 29 14 18
 -11290132.57208  -8797514.87908  21594287.23508  21594291.42308
 -15805623.62108 -12316070.59508  21038056.16508  21038059.75908
  -2872498.50108  -2238305.90908  23664597.69608  23664606.40708
  -1615999.16607  -1259220.21607  24098488.17707  24098494.00407
  -6222055.49608  -4848348.57608  23270608.82308  23270615.66708
 -18891797.31908 -14720888.86908  19611485.89008  19611487.73608
 -10908654.28008  -8500263.37008  20428049.82708  20428053.52608
 -24393610.81808 -19008012.60908  20143077.58708  20143080.32808
 93 04 09 17 12 00.0000000  0  8 22 31 27 28 29 14 18 19
 -10962671.34608  -8542350.76708  21656601.40208  21656605.65708
  -3197590.23407  -2491623.85108  23602734.55207  23602743.32108
  -1933779.74707  -1506841.53907  24038016.78407  24038022.26607
  -6463304.32808  -5036334.48808  23224700.56308  23224707.38208
 -18890232.61808 -14719669.78008  19611783.76808  19611785.64108
 -10575239.62208  -8240460.12808  20491496.87108  20491500.59908
 -24617479.21608 -19182455.52208  20100476.92708  20100479.60708
 -16006653.04608 -12472716.94208  20999801.62408  20999805.21608
 93 04 09 17 14 00.0000000  0  8 22 31 27 28 29 14 18 19
 -10628856.46308  -8282235.78008  21720124.58608  21720128.95508
  -3523057.15307  -2745234.10508  23540800.05807  23540808.67408
  -2249228.85307  -1752646.19907  23977988.87407  23977994.54507
  -6700488.68308  -5221153.30008  23179565.62908  23179572.42908
 -18882986.42908 -14714023.54808  19613162.77008  19613164.65908
 -10235126.32008  -7975437.17808  20556218.56208  20556222.44708
 -24837260.39908 -19353713.60208  20058653.98608  20058656.62208
 -16203526.19508 -12626124.59008  20962337.81708  20962341.48608
 93 04 09 17 16 00.0000000  0  8 22 31 27 28 29 14 18 19
 -10288576.97108  -8017083.46008  21784878.00708  21784882.51908
  -3848436.33907  -2998775.88708  23478882.11507  23478890.65208
  -2561754.77407  -1996173.07307  23918517.24407  23918523.21407
  -6933024.93708  -5402350.28608  23135315.56808  23135322.38508
 -18869839.78008 -14703779.56508  19615664.60208  19615666.50508
  -9887143.54208  -7704282.18608  20622437.85208  20622441.73308
 -25052754.84608 -19521631.38708  20017646.74308  20017649.42608
 -16395780.01908 -12775932.78808  20925753.18008  20925756.83308
 93 04 09 17 18 00.0000000  0  8 22 31 27 28 29 14 18 19
  -9944180.53608  -7748723.12908  21850414.95208  21850419.49208
  -4175724.88907  -3253805.39508  23416600.85707  23416609.17608
  -2873847.96107  -2239362.81107  23859128.09207  23859133.95607
  -7162849.02608  -5581433.86308  23091581.37908  23091588.25008
 -18852423.68508 -14690208.73508  19618978.89108  19618980.83208
  -9534740.22508  -7429682.63108  20689498.27808  20689502.37808
 -25265747.78508 -19687599.95208  19977115.60308  19977118.28608
 -16585364.82908 -12923661.25108  20889676.46108  20889680.07808
 93 04 09 17 20 00.0000000  0  8 22 31 27 28 29 14 18 19
  -9594969.45408  -7476611.13108  21916868.02808  21916872.75208
  -4503868.42007  -3509501.16007  23354156.76807  23354165.01107
  -3184786.71307  -2481652.98007  23799958.54607  23799964.80707
  -7388978.41408  -5757638.41108  23048550.29708  23048557.03008
 -18830209.16208 -14672898.86908  19623206.28808  19623208.34908
  -9177364.05208  -7151208.14208  20757505.03408  20757509.15608
 -25475143.41408 -19850765.40908  19937268.92608  19937271.62608
 -16771860.11308 -13068982.29908  20854187.60608  20854191.24508
 93 04 09 17 22 00.0000000  0  8 22 31 27 28 29 14 18 19
  -9240226.61008  -7200188.66408  21984373.67108  21984378.60208
  -4831791.99008  -3765025.63707  23291754.78708  23291762.70907
  -3493528.18907  -2722230.91407  23741207.25707  23741213.33207
  -7610033.50408  -5929889.02808  23006484.62808  23006491.42108
 -18801981.65008 -14650903.58908  19628577.93908  19628580.04908
  -8813439.54708  -6867631.07908  20826757.89708  20826762.16208
 -25680204.03008 -20010552.93908  19898247.30308  19898249.96808
 -16954074.50808 -13210967.58908  20819513.36908  20819517.08508
 93 04 09 17 24 00.0000000  0  7 22 31 27 28 29 14 18
  -8881000.75608  -6920272.95208  22052732.55108  22052737.51408
  -5160185.02208  -4020915.99707  23229263.32808  23229271.28907
  -3800857.86907  -2961708.64408  23682724.30507  23682730.55208
  -7827333.57908  -6099213.66708  22965133.89308  22965140.56508
 -18768600.07408 -14624892.13808  19634930.38408  19634932.52908
  -8444347.94008  -6580027.73508  20896994.10008  20896998.43808
 -25881592.16108 -20167478.79408  19859924.31408  19859926.99108
 93 04 09 17 26 00.0000000  0  7 14 22 31 27 28 29 18
  -8070256.74808  -6288528.61508  20968181.65708  20968186.15108
  -8516894.41708  -6636554.29408  22122019.96308  22122025.17808
  -5488287.81508  -4276580.20307  23166827.18708  23166835.16607
  -4106498.01107  -3199869.87207  23624562.85907  23624569.24107
  -8039663.50708  -6264665.48508  22924728.67408  22924735.55308
 -18729644.38908 -14594537.24208  19642343.52608  19642345.72808
 -26078757.13008 -20321113.86808  19822405.16008  19822407.88808
 93 04 09 17 28 00.0000000  0  8 14 22 31 27 28 29 18 19
  -7690661.83608  -5992740.90308  21040416.70408  21040421.22708
  -8148142.64308  -6349215.84108  22192191.58508  22192196.85008
  -5815971.53808  -4531917.83508  23104470.85208  23104478.68108
  -4410190.01607  -3436513.05407  23566772.41807  23566778.61607
  -8247264.34608  -6426432.29608  22885223.59608  22885230.33908
 -18684612.00308 -14559447.26208  19650913.01708  19650915.28208
 -26271427.08208 -20471246.33908  19785741.27608  19785744.06308
         0.11018         0.24318  20719382.47818  20719386.13518
 93 04 09 17 30 00.0000000  0  8 14 22 31 27 28 29 18 19
  -7306823.84908  -5693646.91608  21113458.92608  21113463.69408
  -7775613.59508  -6058934.05608  22263081.93808  22263087.30308
  -6143737.94608  -4787319.91308  23042098.77808  23042106.54408
  -4712471.60707  -3672057.21107  23509250.05107  23509256.41407
  -8450573.22708  -6584854.72208  22846535.02808  22846541.86708
 -18634158.12808 -14520132.75108  19660514.21808  19660516.50208
 -26460122.64608 -20618281.90108  19749833.81508  19749836.61508
   -168567.07908   -131350.88808  20687305.25508  20687308.87508
 93 04 09 17 32 00.0000000  0  7 14 22 31 28 29 18 19
  -6917664.78408  -5390406.64508  21187513.88108  21187518.82908
  -7398442.39508  -5765035.03708  22334855.64808  22334861.27908
  -6470356.20708  -5041827.35407  22979945.22108  22979952.84807
  -8648245.65908  -6738885.11408  22808919.05208  22808926.02508
 -18577638.41308 -14476091.60308  19671269.74308  19671272.08608
 -26644171.79008 -20761696.90008  19714810.40008  19714813.26408
   -333125.04208   -259577.91108  20655990.90708  20655994.60508
 93 04 09 17 34 00.0000000  0  8 14 22 31 27 29 28 18 19
  -6523349.28808  -5083148.40008  21262550.05208  21262555.18908
  -7016620.18408  -5467511.90208  22407514.58808  22407520.37308
  -6795448.59708  -5295145.83807  22918082.13508  22918089.44907
        -0.58617        -0.59117  23395355.71817  23395361.99517
 -18514906.01608 -14427209.42708  19683207.48408  19683209.86008
  -8839838.99708  -6888178.60108  22772459.85908  22772466.92708
 -26822898.23708 -20900964.32508  19680799.93908  19680802.80208
   -493625.01608   -384642.91608  20625448.84208  20625452.52008
 93 04 09 17 36 00.0000000  0  8 14 22 31 27 28 29 18 19
  -6124868.62908  -4772644.59108  21338378.91708  21338384.11608
  -6631116.61608  -5167120.20108  22480874.10708  22480880.02108
  -7119617.09908  -5547744.44008  22856394.52408  22856402.02808
   -296208.18707   -230811.74207  23338989.30807  23338995.55407
  -9025930.77908  -7033185.17608  22737047.90708  22737054.82608
 -18446281.61208 -14373736.08508  19696266.44308  19696268.88008
 -26996878.58408 -21036533.48508  19647692.66308  19647695.48208
   -650814.07708   -507127.96808  20595536.82908  20595540.50608
 93 04 09 17 38 00.0000000  0  8 14 22 31 27 29 28 18 19
  -5722056.80008  -4458765.87208  21415031.91108  21415037.20108
  -6241972.98308  -4863892.12608  22554926.13008  22554932.19608
  -7442533.99108  -5799367.71208  22794945.38108  22794952.82808
   -590816.13708   -460376.43707  23282927.32308  23282933.55707
 -18371510.18108 -14315472.85408  19710495.12108  19710497.63608
  -9206355.60008  -7173775.96408  22702714.47908  22702721.29008
 -27166144.68209 -21168429.21008  19615482.44709  19615485.27108
   -804599.91108   -626961.14208  20566272.44308  20566276.09608
 93 04 09 17 40 00.0000000  0  8 14 22 31 27 29 28 18 19
  -5315657.74808  -4142091.92408  21492367.58608  21492372.99308
  -5849437.10508  -4558020.74308  22629623.80308  22629629.98808
  -7764075.80808  -6049919.47708  22733757.70108  22733765.27308
   -883775.91808   -688656.81408  23227178.88008  23227185.31708
 -18290838.25708 -14252611.85808  19725846.64908  19725849.20808
  -9381095.47808  -7309936.90408  22669462.57508  22669469.17708
 -27330485.58709 -21296487.14408  19584209.50009  19584212.35808
   -955086.05608   -744223.13608  20537635.96208  20537639.66608
 93 04 09 17 42 00.0000000  0  8 14 22 31 27 29 28 18 19
  -4905116.02608  -3822189.95808  21570491.58808  21570497.18908
  -5453291.64808  -4249336.70908  22705008.38508  22705014.78908
  -8083654.57508  -6298941.64308  22672943.69408  22672950.98508
  -1175036.60808   -915613.26508  23171753.89708  23171760.16608
 -18203906.92708 -14184873.41708  19742389.35608  19742391.96408
  -9549670.97508  -7441294.42208  22637383.68408  22637390.36008
 -27489288.58809 -21420229.84108  19553990.32209  19553993.21908
  -1102076.42108   -858761.15308  20509664.63008  20509668.36108
 93 04 09 17 44 00.0000000  0  8 14 22 31 27 29 28 18 19
  -4490318.46708  -3498971.78808  21649425.48808  21649431.25508
  -5053392.38308  -3937727.62308  22781107.21308  22781113.82008
  -8400759.73608  -6546036.31608  22612600.28608  22612607.66308
  -1463792.82608  -1140618.18008  23116805.46308  23116811.78708
 -18110161.63808 -14111825.37908  19760228.70508  19760231.31708
  -9711325.46908  -7567258.92008  22606621.72808  22606628.54708
 -27642335.51509 -21539487.26608  19524866.58109  19524869.45908
  -1245040.67408   -970161.98408  20482459.53508  20482463.34808
 93 04 09 17 46 00.0000000  0  8 14 22 31 29 27 28 18 19
  -4072077.82208  -3173070.70808  21729014.50608  21729020.59408
  -4650446.91008  -3623744.87608  22857785.73308  22857792.45108
  -8715727.70208  -6791465.69208  22552663.67708  22552671.24908
 -18010099.56608 -14033855.17408  19779270.04108  19779272.69208
  -1750619.10908  -1364119.22108  23062224.22008  23062230.57608
  -9866619.22008  -7688266.95808  22577070.05808  22577076.80308
 -27790146.95509 -21654665.08708  19496739.03809  19496741.92408
  -1384689.98708  -1078979.69108  20455885.14908  20455888.96308
 93 04 09 17 48 00.0000000  0  8 14 22 31 29 27 28 18 19
  -3651070.86108  -2845014.05708  21809129.90808  21809136.30508
  -4245125.35208  -3307910.62108  22934916.42908  22934923.20308
  -9028860.52708  -7035465.18208  22493076.53408  22493083.84908
 -17904125.29608 -13951278.06708  19799436.44308  19799439.21008
  -2036580.76908  -1586946.50608  23007807.52508  23007813.96108
 -10015836.72708  -7804540.28808  22548675.07308  22548681.73608
 -27932863.59509 -21765872.94308  19469580.99609  19469583.89808
  -1521532.46608  -1185610.25008  20429844.99208  20429848.78008
 93 04 09 17 50 00.0000000  0  8 14 22 29 31 27 28 18 19
  -3228098.25408  -2515425.75108  21889619.50108  21889626.07508
  -3838084.15708  -2990736.43308  23012374.47708  23012381.42508
 -17792943.39908 -13864643.07308  19820593.76408  19820596.60908
  -9340445.43808  -7278258.55008  22433783.74808  22433790.91008
  -2321899.20708  -1809272.57308  22953513.28408  22953519.56908
 -10159453.58108  -7916449.50608  22521345.58008  22521352.22508
 -28071022.18309 -21873529.08108  19443290.39109  19443293.31108
  -1655902.52608  -1290314.24108  20404275.21308  20404279.06508
 93 04 09 17 52 00.0000000  0  8 14 22 29 31 27 28 18 19
  -2801870.68708  -2183301.13208  21970728.43908  21970735.11908
  -3428340.93708  -2671456.82008  23090346.59208  23090353.65908
 -17675271.63608 -13772951.04908  19842986.20608  19842989.07408
  -9649134.08308  -7518795.09208  22375042.32808  22375049.54208
  -2604798.68308  -2029713.70108  22899679.37608  22899685.69308
 -10296176.41908  -8022986.78108  22495328.11808  22495334.64608
 -28203350.17109 -21976641.88108  19418109.31709  19418112.27608
  -1786712.31408  -1392244.03308  20379383.00308  20379386.93308
 93 04 09 17 54 00.0000000  0  8 14 22 29 31 27 28 18 19
  -2372741.66808  -1848915.65608  22052389.70808  22052396.44908
  -3015784.25508  -2349984.86008  23168854.13108  23168861.50208
 -17550939.98008 -13676069.49608  19866645.91508  19866648.84708
  -9954448.28308  -7756702.13808  22316943.01308  22316950.14808
  -2885573.83808  -2248499.48508  22846249.45208  22846255.77108
 -10425413.56208  -8123691.03608  22470735.13308  22470741.95108
 -28329331.45509 -22074809.19208  19394135.94209  19394138.92008
  -1914059.45308  -1491475.64308  20355149.76708  20355153.67008
 93 04 09 17 56 00.0000000  0  8 14 29 22 31 27 28 18 19
  -1942095.78508  -1513348.23608  22134339.54908  22134346.48308
 -17420861.27508 -13574709.74208  19891399.31408  19891402.29308
  -2602047.77408  -2027593.58408  23247586.33508  23247593.61108
 -10257657.18808  -7992968.65808  22259244.16908  22259251.16408
  -3165900.59108  -2466935.82608  22792905.06508  22792911.17208
 -10548778.19208  -8219819.28408  22447259.63408  22447266.30408
 -28450447.82509 -22169185.63908  19371088.26509  19371091.25308
  -2039154.72708  -1588952.53508  20331344.95508  20331348.80008
 93 04 09 17 58 00.0000000  0  8 14 29 22 31 27 28 18 19
  -1508778.77308  -1175699.46708  22216797.56908  22216804.72008
 -17284027.95508 -13468086.64008  19917437.99008  19917441.01208
  -2186065.52808  -1703452.37808  23326745.60508  23326753.22008
 -10557332.50408  -8226481.64708  22202217.54108  22202224.64808
  -3444280.22508  -2683854.89808  22739931.12908  22739937.28708
 -10664985.71108  -8310370.53808  22425146.00108  22425152.71308
 -28565335.53109 -22258708.57708  19349225.87009  19349228.87708
  -2161135.25008  -1684002.29708  20308132.86308  20308136.75808
 93 04 09 18 00 00.0000000  0  8 14 29 22 31 27 28 18 19
  -1073009.96108   -836140.19808  22299722.31108  22299729.60008
 -17140401.18408 -13356169.95008  19944769.52608  19944772.59708
  -1767630.47508  -1377399.84908  23406371.59208  23406379.49708
 -10852906.96508  -8456799.12708  22145971.34708  22145978.34608
  -3720488.11008  -2899081.77608  22687370.52608  22687376.67808
 -10773193.14708  -8394687.98408  22404554.98708  22404561.53808
 -28673517.11309 -22343005.96608  19328639.70409  19328642.71208
  -2279299.77708  -1776078.57408  20285646.85808  20285650.76308
 93 04 09 18 02 00.0000000  0  8 14 29 22 31 27 28 18 19
   -635752.81008   -495421.24008  22382930.22508  22382937.79908
 -16990711.70808 -13239529.07608  19973254.69208  19973257.90108
  -1347817.34707  -1050273.51108  23486259.87107  23486268.19808
 -11145095.41108  -8684478.18508  22090369.58308  22090376.59108
  -3995439.28808  -3113329.42508  22635049.03508  22635055.26308
 -10873983.78508  -8473226.14408  22385375.05008  22385381.61408
 -28775782.84809 -22422693.60708  19309179.18209  19309182.20908
  -2394600.03508  -1865922.98508  20263705.97608  20263709.85408
 93 04 09 18 04 00.0000000  0  8 14 22 29 31 27 28 18 19
   -197849.61208   -154198.89108  22466261.16208  22466268.96808
   -927664.84007   -722882.66207  23566212.79207  23566221.02907
 -16835833.04608 -13118844.66208  20002727.32908  20002730.55608
 -11434582.57808  -8910052.38608  22035281.82008  22035288.71808
  -4269986.84708  -3327262.53108  22582804.29408  22582810.54508
 -10968313.01408  -8546729.44808  22367424.72208  22367431.44508
 -28872901.02709 -22498370.17208  19290698.22509  19290701.22008
  -2508173.53508  -1954421.85808  20242093.68008  20242097.65308
 93 04 09 18 06 00.0000000  0  8 14 22 29 31 27 28 18 19
    239646.80708    186706.46608  22549514.73608  22549522.61308
   -507974.89207   -395852.20107  23646077.58207  23646086.19907
 -16676325.36008 -12994553.23708  20033080.84908  20033084.15908
 -11721815.00508  -9133869.64408  21980623.15708  21980630.13108
  -4544699.87608  -3541324.50808  22530528.08308  22530534.31308
 -11057251.90608  -8616032.52708  22350500.42108  22350506.97508
 -28965163.45409 -22570263.04808  19273141.38509  19273144.35208
  -2620238.66408  -2041745.38308  20220768.52108  20220772.45708
 93 04 09 18 08 00.0000000  0  8 14 22 29 31 27 28 18 19
    677592.61108    527961.94308  22632853.64508  22632861.91808
    -87786.88707    -68433.61507  23726037.19007  23726045.72707
 -16510688.08608 -12865485.52508  20064600.79008  20064604.16608
 -12005481.95608  -9354908.54108  21926642.82708  21926649.71808
  -4818403.64308  -3754599.98308  22478443.82708  22478450.00908
 -11139228.00108  -8679910.09608  22334900.94308  22334907.45508
 -29051913.90309 -22637860.88108  19256633.40609  19256636.38808
  -2730166.65209  -2127403.62408  20199850.04309  20199853.93808
 93 04 09 18 10 00.0000000  0  8 14 22 29 31 27 28 18 19
   1117917.50208    871071.21308  22716645.44308  22716653.93808
    334722.41007    260793.81007  23806438.51807  23806447.34607
 -16337256.71808 -12730344.51508  20097603.93508  20097607.41808
 -12283412.60808  -9571477.58908  21873754.26008  21873760.98508
  -5089371.14908  -3965743.22008  22426880.18508  22426886.36108
 -11211892.10508  -8736531.58208  22321073.40008  22321080.14108
 -29130855.11109 -22699373.58708  19241611.40909  19241614.39408
  -2836098.79409  -2209948.23108  20179691.79009  20179695.77308
 93 04 09 18 12 00.0000000  0  8 14 22 31 29 27 28 18 19
   1559608.01908   1215244.58808  22800697.21308  22800705.97208
    758603.62807    591090.22507  23887100.82807  23887109.85607
 -12556210.43808  -9784047.01008  21821842.33408  21821848.99508
 -16157205.52908 -12590045.20608  20131866.78808  20131870.32208
  -5358528.42608  -4175475.89308  22375661.04608  22375667.09608
 -11276561.10708  -8786923.09108  22308767.54508  22308774.18108
 -29202537.52209 -22755230.10408  19227970.80609  19227973.83108
  -2938798.00909  -2289973.63008  20160148.81209  20160152.83608
 93 04 09 18 14 00.0000000  0  8 14 22 31 27 29 28 18 19
   2002063.98508   1560014.35007  22884894.49208  22884903.68807
   1182969.04407    921764.05607  23967855.24907  23967864.43707
 -12824423.23108  -9993043.69908  21770802.95508  21770809.52208
  -5626340.36608  -4384160.32608  22324698.03308  22324703.99808
 -15971021.66908 -12444967.17908  20167296.58708  20167300.22508
 -11333480.20708  -8831275.67208  22297936.07108  22297942.79508
 -29267668.48509 -22805981.58408  19215576.84409  19215579.89708
  -3038815.55909  -2367909.40408  20141116.15409  20141120.15608
 93 04 09 18 16 00.0000000  0  8 14 22 31 29 27 28 18 19
   2444178.21107   1904517.81008  22969026.89807  22969036.39308
   1607434.19307   1252515.47007  24048628.83207  24048638.13307
 -13088098.76508 -10198504.85608  21720626.94208  21720633.49708
 -15778849.75508 -12295223.14208  20203865.96708  20203869.63308
  -5892976.64308  -4591928.68008  22273958.69408  22273964.60208
 -11382671.53508  -8869606.58708  22288575.42108  22288582.09108
 -29326475.22909 -22851805.09008  19204386.40309  19204389.46808
  -3136545.57609  -2444062.69808  20122518.75109  20122522.65008
 93 04 09 18 18 00.0000000  0  8 14 22 31 29 27 28 18 19
   2885631.01307   2248505.83808  23053033.46107  23053043.28608
   2031421.22807   1582894.43307  24129311.24907  24129320.77007
 -13347480.37408 -10400620.14308  21671268.06908  21671274.55508
 -15581013.86908 -12141065.64608  20241513.11108  20241516.89408
  -6159163.87008  -4799347.16408  22223304.96308  22223310.72908
 -11424727.03608  -8902377.11508  22280572.49008  22280579.16608
 -29379410.76509 -22893053.61908  19194312.97309  19194316.06108
  -3232521.12809  -2518848.85508  20104255.21009  20104259.18708
 93 04 09 18 20 00.0000000  0  8 14 22 31 29 27 28 18 19
   3326771.44807   2592250.43808  23136980.74207  23136990.68508
   2455117.14307   1913046.50307  24209938.33607  24209948.17407
 -13602051.67108 -10598987.17708  21622824.56708  21622830.96908
 -15377393.74908 -11982400.98408  20280260.97408  20280264.83908
  -6424445.64708  -5006060.07108  22172823.26408  22172829.08608
 -11459119.08408  -8929176.12308  22274027.88008  22274034.64508
 -29425779.41309 -22929185.09708  19185489.45809  19185492.54908
  -3325974.94909  -2591670.04908  20086471.54109  20086475.57508
 93 04 09 18 22 00.0000000  0  8 14 22 31 29 27 28 18 19
   3767762.64907   2935878.74608  23220899.38207  23220909.73208
   2878952.86907   2243307.50507  24290592.12407  24290601.96207
 -13851058.89608 -10793018.54608  21575439.89008  21575446.31908
 -15167489.13608 -11818839.31808  20320204.77708  20320208.73408
  -6688390.42008  -5211731.22008  22122596.24108  22122601.91708
 -11485099.97008  -8949421.00608  22269083.93008  22269090.64708
 -29465077.18309 -22959806.80008  19178011.35209  19178014.41608
  -3416701.99109  -2662366.47808  20069206.81709  20069210.84208
 93 04 09 18 24 00.0000000  0  8 14 22 31 29 27 28 18 19
   4208113.44308   3279007.95207  23304696.41608  23304706.87507
   3302479.29307   2573327.66107  24371186.75607  24371196.94407
 -14094632.67008 -10982816.07008  21529089.14208  21529095.48308
 -14951550.92808 -11650576.15508  20361296.76008  20361300.81308
  -6951160.80108  -5416487.27908  22072592.54308  22072598.39608
 -11503171.75708  -8963502.98108  22265645.12608  22265651.78608
 -29497577.05709 -22985131.50508  19171826.99409  19171830.12308
  -3505291.21009  -2731397.06608  20052348.88909  20052352.86408
 93 04 09 18 26 00.0000000  0  8 14 31 22 29 27 28 18 19
   4648019.01608   3621790.26208  23388408.61508  23388419.46008
 -14332321.40708 -11168027.86808  21483858.33808  21483864.62608
   3725831.64307   2903211.98407  24451748.38907  24451758.70207
 -14729329.42208 -11477416.93708  20403584.44208  20403588.60308
  -7212623.43908  -5620224.39108  22022837.84708  22022843.78508
 -11513246.73308  -8971353.70408  22263727.72108  22263734.56308
 -29522791.73809 -23004779.44808  19167028.91209  19167032.06608
  -3591327.62109  -2798438.43108  20035976.70909  20035980.69808
 93 04 09 18 28 00.0000000  0  8 31 14 22 29 27 28 18 19
 -14564442.75808 -11348901.44208  21439686.90508  21439693.20608
   5086566.91908   3963514.56808  23471862.61008  23471873.66408
   4148384.32407   3232473.46807  24532157.95007  24532168.01607
 -14501379.05308 -11299793.69108  20446962.26008  20446966.48808
  -7473186.81308  -5823260.75808  21973254.32108  21973260.16408
 -11515431.82008  -8973056.44108  22263312.01408  22263318.76408
 -29541567.46809 -23019410.02208  19163456.11609  19163459.29808
  -3675330.87609  -2863895.53708  20019991.43409  20019995.41808
 93 04 09 18 30 00.0000000  0  8 31 14 27 29 22 28 18 19
 -14790879.28508 -11525345.29208  21396597.38008  21396603.56508
   5523999.65108   4304369.90907  23555104.25108  23555115.63107
  -7732965.68808  -6025685.76208  21923820.01508  21923825.76008
 -14267738.32808 -11117736.41608  20491422.90408  20491427.26608
   4569949.26007   3560965.17707  24612379.55107  24612389.85407
 -11509570.97808  -8968489.62208  22264427.45408  22264434.27508
 -29553583.38309 -23028773.17508  19161169.61509  19161172.79908
  -3757178.23509  -2927672.73108  20004416.39209  20004420.49808
 93 04 09 18 32 00.0000000  0  8 31 27 14 28 29 22 18 19
 -15010956.64908 -11696833.96008  21354717.92008  21354723.94508
  -7991660.06908  -6227265.69908  21874592.10008  21874597.72708
   5960065.81607   4644160.36907  23638085.90207  23638097.46907
 -11495532.40408  -8957550.54608  22267099.14008  22267105.71108
 -14028023.46608 -10930946.04608  20537039.52308  20537043.90508
   4990905.25407   3888982.45207  24692485.03807  24692495.41807
 -29557917.86209 -23032150.78908  19160344.84509  19160348.13208
  -3836564.66209  -2989532.33208  19989309.65509  19989313.76008
 93 04 09 18 34 00.0000000  0  7 31 14 27 28 18 29 19
 -15225660.70608 -11864135.65608  21313861.02608  21313866.99808
   6393699.63607   4982055.43807  23720604.75607  23720616.72707
  -8250064.38308  -6428619.55508  21825419.18508  21825424.83308
 -11473970.11508  -8940748.83208  22271202.28808  22271208.86008
 -29556049.32409 -23030694.89508  19160700.49309  19160703.76008
 -13783222.47408 -10740192.46308  20583623.93608  20583628.47308
  -3914655.18309  -3050382.11508  19974449.52709  19974453.71608
 93 04 09 18 36 00.0000000  0  7 14 31 27 28 29 18 19
   6825045.33707   5318167.49907  23802688.19607  23802700.44107
 -15434722.70108 -12027040.91708  21274077.66008  21274083.67308
  -8508164.39208  -6629736.28308  21776304.25608  21776309.84908
 -11445280.30208  -8918393.17308  22276661.79008  22276668.41808
 -13533330.75708 -10545472.09708  20631177.03408  20631181.66708
 -29547980.51409 -23024407.63008  19162236.03209  19162239.37908
  -3991490.41209  -3110253.74308  19959828.29509  19959832.43308
 93 04 09 18 38 00.0000000  0  8 14 11 31 27 29 28 18 19
   7254139.17307   5652524.82607  23884343.15607  23884356.00207
        -0.43518        -0.73917  23244456.48818  23244468.34517
 -15637686.66208 -12185194.46508  21235454.88008  21235460.79508
  -8765844.18208  -6830525.53508  21727269.31208  21727274.84708
 -13278639.54208 -10347011.88808  20679643.57108  20679648.28308
 -11408867.10408  -8890019.30508  22283590.88508  22283597.85308
 -29533063.17909 -23012783.86408  19165074.73909  19165078.11408
  -4066637.41609  -3168809.88408  19945528.33109  19945532.46508
 93 04 09 18 40 00.0000000  0  8 11 14 31 27 28 29 18 19
   -311006.91408   -242342.71907  23185273.48408  23185285.01307
   7682064.21406   5985971.31207  23965775.70506  23965788.99107
 -15832893.69808 -12337303.65208  21198308.02908  21198313.96508
  -9021518.68408  -7029752.21308  21678615.89308  21678621.39908
 -11363177.33008  -8854416.98408  22292285.47008  22292292.38308
 -13017223.96108 -10143311.93008  20729389.70408  20729394.49508
 -29509906.03609 -22994739.46808  19169481.53309  19169484.92708
  -4138391.96709  -3224722.56008  19931874.01809  19931878.11408
 93 04 09 18 42 00.0000000  0  7 11 31 27 28 18 19 29
   -617903.69608   -481482.30608  23126872.49908  23126883.84108
 -16020024.65408 -12483119.80408  21162698.11908  21162703.87308
  -9275291.79308  -7227497.32708  21630324.34508  21630329.82908
 -11308359.78808  -8811702.14908  22302717.05908  22302723.94008
 -29478341.84509 -22970144.11608  19175488.07109  19175491.45308
  -4206874.31609  -3278085.45808  19918842.27709  19918846.37608
 -12748829.40308  -9934173.81608  20780463.77508  20780468.79108
 93 04 09 18 44 00.0000000  0  7 11 31 27 28 18 29 19
   -921213.47808   -717826.78208  23069153.80708  23069165.06708
 -16199665.84508 -12623099.80408  21128513.40508  21128519.14808
  -9527515.98908  -7424035.50008  21582327.56108  21582333.07008
 -11244657.91508  -8762064.45108  22314839.19108  22314846.11308
 -29438874.56409 -22939390.51608  19182998.60309  19183001.98708
 -12474722.74208  -9720584.70008  20832624.92308  20832630.04908
  -4273021.98209  -3329629.12108  19906254.82009  19906258.97008
 93 04 09 18 46 00.0000000  0  8 11 16 31 27 28 18 29 19
  -1221133.83108   -951530.18808  23012080.30308  23012091.35808
        -0.41318         0.04017  23971988.66218  23971996.99817
 -16372081.23808 -12757449.33808  21095703.76508  21095709.43408
  -9778681.84408  -7619749.05408  21534532.19808  21534537.64308
 -11172873.79308  -8706128.88408  22328499.46008  22328506.38008
 -29392056.83409 -22902909.28908  19191907.83909  19191911.25708
 -12195175.99108  -9502756.58208  20885821.34808  20885826.56608
  -4336791.85409  -3379319.93308  19894119.78209  19894123.92808
 93 04 09 18 48 00.0000000  0  8 16 11 31 27 28 18 29 19
   -285653.02108   -222586.53107  23917630.80208  23917639.19407
  -1518679.34308  -1183383.10708  22955458.82608  22955469.65408
 -16538356.07908 -12887014.04108  21064062.52008  21064068.26908
 -10029911.52608  -7815512.27708  21486724.66308  21486730.07008
 -11094257.78008  -8644869.78508  22343459.58108  22343466.50308
 -29338957.52109 -22861533.34308  19202012.39709  19202015.89808
 -11911068.09808  -9281374.37708  20939885.62208  20939891.04508
  -4399654.55509  -3428303.86008  19882157.32209  19882161.52308
 93 04 09 18 50 00.0000000  0  8 29 16 11 31 27 28 18 19
 -11622702.40008  -9056674.44008  20994760.34108  20994765.86108
   -566704.68207   -441588.03307  23864148.49107  23864157.23207
  -1813718.46608  -1413283.02108  22899314.28408  22899324.88108
 -16698432.46108 -13011748.77808  21033600.87808  21033606.59008
 -10281622.87408  -8011650.81808  21438825.48008  21438830.87208
 -11008730.96208  -8578225.66708  22359735.19908  22359742.18608
 -29279593.24509 -22815275.59008  19213309.13309  19213312.60908
  -4461841.74509  -3476761.41908  19870323.51109  19870327.69608
 93 04 09 18 52 00.0000000  0  8 29 16 11 31 27 28 18 19
 -11328925.83008  -8827758.24308  21050664.63908  21050670.16108
   -841182.68507   -655467.24107  23811917.41607  23811926.19007
  -2104297.75408  -1639707.85108  22844018.52108  22844028.76208
 -16850436.30508 -13130193.21008  21004675.42008  21004681.09808
 -10532224.05508  -8206924.28108  21391137.52408  21391142.85608
 -10914652.91108  -8504918.24808  22377637.51008  22377644.54908
 -29212542.85608 -22763028.66408  19226068.48408  19226071.98008
  -4521417.51409  -3523184.12808  19858986.70309  19858990.88408
 93 04 09 18 54 00.0000000  0  8 29 16 11 27 28 18 31 19
 -11029715.22608  -8594607.72608  21107603.05108  21107608.71608
  -1109266.79208   -864364.09907  23760902.74708  23760911.58307
  -2390350.15008  -1862605.22108  22789584.01608  22789594.29908
 -10781078.38808  -8400836.55708  21343781.97708  21343787.24108
 -10812282.36208  -8425149.18608  22397118.10008  22397125.18208
 -29137675.22008 -22704690.42608  19240315.46508  19240319.01208
 -16994380.55308 -13242357.41708  20977283.66208  20977289.39308
  -4578596.75109  -3567739.43108  19848105.89109  19848110.01208
 93 04 09 18 56 00.0000000  0  8 29 16 11 27 28 18 31 19
 -10724925.93108  -8357110.17408  21165602.95508  21165608.84908
  -1370497.42908  -1067920.51607  23711192.21208  23711201.02207
  -2671406.11608  -2081609.27008  22736100.47408  22736110.46308
 -11028485.25708  -8593620.93908  21296701.86708  21296706.96508
 -10700783.78408  -8338267.39808  22418335.89808  22418342.94708
 -29054440.56708 -22639832.43108  19256154.61508  19256158.22908
 -17129881.89008 -13347942.75208  20951498.56508  20951504.21108
  -4633148.91809  -3610247.69508  19837725.04409  19837729.18608
 93 04 09 18 58 00.0000000  0  8 29 16 11 27 28 18 31 19
 -10413799.15008  -8114674.34608  21224808.84808  21224814.92108
  -1624024.88508  -1265474.37807  23662947.63008  23662956.31907
  -2946610.14008  -2296053.37708  22683730.36208  22683740.34008
 -11273962.05008  -8784901.38508  21249989.05208  21249994.14308
 -10580257.05608  -8244350.71808  22441271.47608  22441278.66708
 -28962801.30008 -22568425.38008  19273593.12408  19273596.78308
 -17256173.47308 -13446351.68108  20927466.02808  20927471.70108
  -4684528.57609  -3650283.87208  19827947.85009  19827952.07608
 93 04 09 19 00 00.0000000  0  8 29 16 11 27 28 18 31 19
 -10097792.13308  -7868435.77508  21284943.44708  21284949.79508
  -1871229.14608  -1458101.04607  23615906.15108  23615914.59707
  -3217199.79808  -2506901.87908  22632238.39408  22632248.36608
 -11518631.61408  -8975552.84808  21203429.87208  21203435.02308
 -10452440.93208  -8144753.99508  22465594.07608  22465601.51308
 -28863598.92808 -22491124.98408  19292470.84708  19292474.55308
 -17374584.39608 -13538619.85108  20904933.15208  20904938.72808
  -4734046.41309  -3688869.26608  19818524.95109  19818529.20108
 93 04 09 19 02 00.0000000  0  8 29 16 11 27 28 18 31 19
  -9777998.92308  -7619246.98308  21345798.61108  21345805.02308
  -2112877.74608  -1646398.64507  23569922.08208  23569930.50207
  -3483801.80208  -2714643.16108  22581505.27108  22581515.07808
 -11763309.02308  -9166210.40308  21156869.10908  21156874.31708
 -10317157.89208  -8039338.93008  22491337.81208  22491345.36308
 -28758128.25408 -22408940.21708  19312541.35908  19312545.08108
 -17485838.08208 -13625310.95808  20883762.14008  20883767.73508
  -4782467.90209  -3726600.32308  19809310.67709  19809314.95908
 93 04 09 19 04 00.0000000  0  8 29 16 11 27 28 18 31 19
  -9453378.95608  -7366297.10408  21407572.23708  21407578.84908
  -2347616.53208  -1829311.99307  23525252.67108  23525261.17107
  -3744954.33108  -2918138.15608  22531809.18108  22531818.82008
 -12006499.20208  -9355709.09708  21110591.47908  21110596.59708
 -10173875.52808  -7927690.65908  22518603.49608  22518611.26308
 -28645073.43908 -22320845.73708  19334055.10208  19334058.85508
 -17588571.83408 -13705363.17108  20864212.53808  20864218.12708
  -4828420.67109  -3762407.67808  19800566.09409  19800570.34708
 93 04 09 19 06 00.0000000  0  8 29 16 11 27 28 18 31 19
  -9123182.10408  -7109001.61808  21470407.19108  21470414.01008
  -2574792.01208  -2006331.78407  23482022.63408  23482031.13007
  -3999918.39608  -3116810.96808  22483290.82408  22483300.28008
 -12248084.58908  -9543957.28908  21064619.21308  21064624.25008
 -10022362.39208  -7809628.80208  22547435.88408  22547443.56908
 -28523279.24108 -22225941.35708  19357231.92208  19357235.71708
 -17682147.87608 -13778279.49108  20846405.56208  20846411.08008
  -4871718.63409  -3796146.36008  19792326.84409  19792331.08308
 93 04 09 19 08 00.0000000  0  8 29 16 11 27 28 18 31 19
  -8787919.47708  -6847758.80108  21534206.16608  21534213.07808
  -2794426.81508  -2177475.62107  23440227.33908  23440235.98807
  -4248767.97608  -3310719.27208  22435935.96008  22435945.34508
 -12488308.35108  -9731144.48708  21018906.00608  21018911.01208
  -9862312.89808  -7684915.27308  22577892.74508  22577900.38708
 -28393605.03308 -22124896.72308  19381908.32008  19381912.20308
 -17766747.32508 -13844201.06508  20830306.76608  20830312.27708
  -4912341.45109  -3827800.55808  19784596.62409  19784600.83708
 93 04 09 19 10 00.0000000  0  8 29 16 11 28 18 31 27 19
  -8448320.30608  -6583136.86108  21598830.26608  21598837.50508
  -3007099.06008  -2343194.07007  23399757.13508  23399765.77907
  -4491725.27108  -3500036.15808  22389702.28508  22389711.64108
  -9694644.43108  -7554264.89408  22609799.10808  22609807.00708
 -28256669.68108 -22018194.05308  19407966.28808  19407970.26308
 -17842702.17908 -13903386.59008  20815853.03108  20815858.44408
 -12727372.73508  -9917428.26908  20973413.46708  20973418.43208
  -4950801.61409  -3857769.59008  19777277.98109  19777282.20008
 93 04 09 19 12 00.0000000  0  8 29 16 11 28 18 31 27 19
  -8103035.75008  -6314084.83908  21664536.42908  21664543.92108
  -3211504.55608  -2502470.91607  23360859.77908  23360868.51707
  -4727488.16908  -3683747.04308  22344837.82508  22344846.97108
  -9518362.15208  -7416902.45508  22643344.94508  22643352.78408
 -28111137.55608 -21904792.61908  19435660.31908  19435664.31308
 -17908822.75208 -13954909.06508  20803270.59108  20803276.07808
 -12964082.71808 -10101877.46608  20928368.96208  20928373.89308
  -4986053.29509  -3885238.50708  19770569.89609  19770574.12808
 93 04 09 19 14 00.0000000  0  8 29 16 11 28 18 31 27 19
  -7752434.53308  -6040890.00808  21731254.26408  21731261.94408
  -3407788.74208  -2655419.48307  23323508.09008  23323516.70407
  -4956043.90708  -3861841.97508  22301344.77208  22301353.88908
  -9333434.42108  -7272803.29708  22678535.75708  22678543.93108
 -27957114.85108 -21784775.15908  19464970.05308  19464974.15308
 -17965211.43008 -13998848.25508  20792540.15408  20792545.66708
 -13198560.08708 -10284586.96508  20883749.29508  20883754.18708
  -5017872.35409  -3910032.62108  19764514.90709  19764519.19808
 93 04 09 19 16 00.0000000  0  8 29 16 11 28 18 31 27 19
  -7397051.63908  -5763969.26308  21798882.21208  21798890.17008
  -3596437.19608  -2802418.13007  23287609.39408  23287617.83407
  -5177820.79708  -4034654.71308  22259141.64408  22259150.61308
  -9140709.24508  -7122628.21908  22715210.56008  22715218.55308
 -27795149.39908 -21658568.55508  19495791.21908  19495795.38208
 -18012414.25108 -14035629.61508  20783557.70908  20783563.20808
 -13431762.36108 -10466302.85308  20839372.30508  20839377.09508
  -5047223.58109  -3932903.74308  19758929.59109  19758933.85308
 93 04 09 19 18 00.0000000  0  8 29 16 11 28 18 31 27 19
  -7037854.96808  -5484076.77508  21867235.72508  21867243.96608
  -3777400.16608  -2943428.11608  23253173.26308  23253181.58608
  -5393086.08408  -4202393.49908  22218177.70908  22218186.58108
  -8940908.06708  -6966939.33008  22753231.46008  22753239.60808
 -27625694.98808 -21526526.41508  19528037.50408  19528041.69008
 -18050820.71508 -14065556.68108  20776249.15108  20776254.61708
 -13663872.86308 -10647168.00908  20795202.98608  20795207.68608
  -5074716.42409  -3954326.76808  19753697.86909  19753702.20108
 93 04 09 19 20 00.0000000  0  8 29 16 11 28 31 27 18 19
  -6675765.24008  -5201929.98008  21936139.83308  21936148.44308
  -3952187.89508  -3079626.23408  23219912.10108  23219920.48508
  -5602537.05708  -4365601.65708  22178320.19508  22178328.96308
  -8734744.56508  -6806292.82308  22792463.36408  22792471.61008
 -18081252.48508 -14089269.70208  20770458.12108  20770463.59608
 -13895509.70408 -10827664.10708  20751123.84308  20751128.59908
 -27450013.76308 -21389632.20708  19561468.70908  19561472.93508
  -5100752.25209  -3974614.46808  19748743.44709  19748747.77408
 93 04 09 19 22 00.0000000  0  8 29 16 11 28 31 27 18 19
  -6310438.05408  -4917260.53108  22005660.09308  22005668.90108
  -4120423.39608  -3210718.71608  23187897.74308  23187906.31008
  -5805935.45408  -4524093.53608  22139614.55208  22139623.35708
  -8522152.38808  -6640636.96108  22832918.81608  22832927.03608
 -18103596.46008 -14106680.54808  20766206.24608  20766211.60808
 -14127026.92908 -11008067.03708  20707067.53308  20707072.32308
 -27268020.06108 -21247819.19708  19596101.13608  19596105.39708
  -5125446.02909  -3993856.44208  19744044.45609  19744048.79808
 93 04 09 19 24 00.0000000  0  8 29 16 11 28 31 27 18 19
  -5940525.42408  -4629018.00408  22076053.11808  22076062.10108
  -4280324.40108  -3335316.77808  23157469.55308  23157478.02608
  -6001415.19008  -4676415.06208  22102415.85308  22102424.34308
  -8301473.95608  -6468680.13208  22874912.38008  22874921.10708
 -18116116.65308 -14116436.53108  20763823.74808  20763829.07908
 -14356295.31508 -11186717.64308  20663439.11808  20663443.86808
 -27077770.64408 -21099573.19208  19632304.69308  19632309.04108
  -5147149.68509  -4010768.46908  19739914.47109  19739918.78808
 93 04 09 19 26 00.0000000  0  8 29 16 11 28 31 27 18 19
  -5567124.50808  -4338057.40608  22147109.78008  22147119.17508
  -4432595.06408  -3453969.10207  23128493.30908  23128501.66207
  -6189564.80508  -4823024.81408  22066611.90508  22066620.31708
  -8074305.11708  -6291665.78708  22918141.72008  22918150.30108
 -18119532.76108 -14119098.42708  20763173.70308  20763179.02608
 -14584473.39808 -11364518.66808  20620018.21508  20620022.88608
 -26880358.94708 -20945746.19908  19669871.06408  19669875.53608
  -5166422.61809  -4025786.41308  19736246.98609  19736251.36308
 93 04 09 19 28 00.0000000  0  8 29 16 11 28 31 27 18 19
  -5190520.25808  -4044600.73008  22218776.14608  22218785.62108
  -4577319.51608  -3566741.29007  23100953.21108  23100961.42807
  -6370590.06808  -4964083.16508  22032163.78908  22032171.94708
  -7840389.14708  -6109394.02408  22962654.83108  22962663.28508
 -18114182.67308 -14114929.53508  20764191.73308  20764197.15808
 -14811471.36608 -11541400.11108  20576821.85208  20576826.53508
 -26676217.99708 -20786675.63308  19708718.01208  19708722.59808
  -5183561.48409  -4039141.44608  19732985.62709  19732990.02808
 93 04 09 19 30 00.0000000  0  8 29 16 11 28 31 27 18 19
  -4809253.58208  -3747511.01308  22291329.74208  22291339.64008
  -4712909.28008  -3672395.61308  23075151.30008  23075159.59108
  -6542694.80008  -5098190.47808  21999413.09508  21999421.35008
  -7598273.43308  -5920732.78908  23008728.22408  23008736.84808
 -18098405.61608 -14102635.75008  20767194.05208  20767199.51608
 -15035880.02308 -11716263.89908  20534118.20408  20534122.85408
 -26463566.82608 -20620973.72608  19749184.45608  19749189.08808
  -5197188.34909  -4049759.86208  19730392.59609  19730396.97908
 93 04 09 19 32 00.0000000  0  8 29 16 11 28 31 27 18 19
  -4424686.32008  -3447849.52608  22364511.33208  22364521.65508
  -4840992.60008  -3772200.84207  23050777.86808  23050786.06507
  -6707037.80308  -5226249.68308  21968139.29808  21968147.75008
  -7349654.36908  -5727004.03507  23056039.20408  23056047.82107
 -18073498.06208 -14083227.32208  20771933.81208  20771939.24608
 -15258679.66808 -11889873.87708  20491720.83208  20491725.39108
 -26243949.06108 -20449843.31608  19790976.57708  19790981.25908
  -5208361.19509  -4058466.05308  19728266.60609  19728270.98608
 93 04 09 19 34 00.0000000  0  8 29 16 11 28 31 27 18 19
  -4037546.61408  -3146183.58308  22438182.64608  22438193.21008
  -4962299.26808  -3866725.53307  23027693.94308  23027702.14107
  -6864441.45008  -5348901.59108  21938186.19108  21938194.53108
  -7095723.79008  -5529136.40808  23104360.71708  23104369.58708
 -18040420.70008 -14057452.80108  20778228.22208  20778233.75708
 -15481017.98208 -12063124.37208  20449411.16708  20449415.63408
 -26018238.18708 -20273965.04608  19833928.18208  19833932.92008
  -5217983.30109  -4065963.85108  19726435.58609  19726439.93608
 93 04 09 19 36 00.0000000  0  8 29 16 11 28 31 27 18 19
  -3648823.87708  -2843284.16708  22512155.23208  22512166.02208
  -5077365.05508  -3956387.12608  23005797.56508  23005805.85908
  -7015314.38008  -5466464.61008  21909475.70508  21909484.06308
  -6836861.65208  -5327426.06807  23153621.06108  23153629.77907
 -17999721.57908 -14025739.21008  20785973.09008  20785978.61808
 -15703602.90708 -12236567.04708  20407054.58308  20407059.04708
 -25787248.95108 -20093973.77708  19877884.18208  19877889.02708
  -5226625.40709  -4072698.00908  19724791.06909  19724795.45508
 93 04 09 19 38 00.0000000  0  8 11 29 16 28 31 27 18 19
  -7158810.85108  -5578279.71408  21882169.15408  21882177.20208
  -3258121.94308  -2538842.56008  22586504.39208  22586515.65908
  -5185012.68308  -4040268.29608  22985312.64908  22985321.15008
  -6572366.12207  -5121326.10707  23203953.02007  23203962.07607
 -17950696.02908 -13987537.47408  20795302.25808  20795307.80908
 -15925328.17308 -12409339.87208  20364861.51308  20364866.01608
 -25550118.31708 -19909197.02408  19923008.94008  19923013.88708
  -5233808.95509  -4078295.62508  19723424.10809  19723428.49508
 93 04 09 19 40 00.0000000  0  8 11 29 16 28 31 27 18 19
  -7292971.36308  -5682820.06708  21856638.98308  21856646.96908
  -2863578.30308  -2231407.47508  22661584.65408  22661596.22808
  -5284091.14608  -4117472.28908  22966458.81908  22966467.13808
  -6300715.77807  -4909650.94507  23255646.72707  23255655.79107
 -17891526.38508 -13941431.25708  20806561.90708  20806567.41708
 -16144479.74408 -12580107.25808  20323158.32308  20323162.81808
 -25305052.00608 -19718236.64308  19969643.75208  19969648.80908
  -5237400.77509  -4081094.50308  19722740.63409  19722745.05808
 93 04 09 19 42 00.0000000  0  8 11 29 16 28 31 27 18 19
  -7418016.78208  -5780257.75608  21832843.25708  21832851.27208
  -2465849.22908  -1921490.28508  22737271.16408  22737283.05508
  -5374783.51608  -4188141.75708  22949200.59508  22949208.98008
  -6022628.81807  -4692960.28807  23308565.29507  23308574.60307
 -17822575.60908 -13887703.39508  20819682.74308  20819688.29208
 -16361109.40608 -12748909.52808  20281934.97008  20281939.51008
 -25053039.83808 -19521863.90908  20017600.35108  20017605.55208
  -5237756.78009  -4081372.00008  19722672.99709  19722677.46208
 93 04 09 19 44 00.0000000  0  8 11 29 16 28 31 27 18 19
  -7532428.57908  -5869409.53508  21811071.25908  21811079.20108
  -2063643.36808  -1608084.68807  22813809.62508  22813821.81707
  -5455326.63608  -4250902.73808  22933873.91208  22933882.34908
  -5736454.30007  -4469967.64707  23363022.98107  23363032.19207
 -17742467.95508 -13825281.90308  20834926.79908  20834932.35008
 -16574178.47908 -12914937.31708  20241389.23508  20241393.71708
 -24792122.62608 -19318552.18208  20067251.54808  20067256.76108
  -5233268.61109  -4077874.84208  19723527.11509  19723531.61408
 93 04 09 19 46 00.0000000  0  8 11 29 16 28 31 27 18 19
  -7636277.24708  -5950330.35408  21791309.34408  21791317.31308
  -1656843.62508  -1291099.50608  22891222.27508  22891234.94308
  -5526004.93808  -4305976.84808  22920424.34508  22920432.67208
  -5442773.53707  -4241125.97507  23418908.88607  23418918.39207
 -17651418.36608 -13754334.25608  20852253.03808  20852258.64908
 -16783314.35708 -13077900.27708  20201591.99508  20201596.44408
 -24523049.58508 -19108885.27508  20118454.77308  20118460.09408
  -5224289.20909  -4070878.03008  19725235.95409  19725240.46008
 93 04 09 19 48 00.0000000  0  8 11 29 16 28 31 27 18 19
  -7730581.86808  -6023814.28408  21773363.73408  21773371.48408
  -1246777.56408   -971569.23807  22969256.53508  22969269.61607
  -5588024.03208  -4354303.51408  22908622.70008  22908630.96708
  -5142521.68807  -4007163.93307  23476045.46907  23476054.81807
 -17550588.67308 -13675765.76908  20871440.36308  20871445.97508
 -16989947.49708 -13238913.06508  20162270.96008  20162275.43108
 -24246875.69208 -18893685.24408  20171009.21708  20171014.59108
  -5211535.58309  -4060940.25408  19727662.92709  19727667.48308
 93 04 09 19 50 00.0000000  0  8 11 29 16 28 31 27 18 19
  -7816748.43708  -6090956.88708  21756966.66608  21756974.39508
   -835260.55308   -650908.38908  23047566.94008  23047580.60608
  -5643151.92908  -4397260.49808  22898132.30308  22898140.61508
  -4837880.59707  -3769781.72007  23534016.87707  23534026.56507
 -17441528.64008 -13590784.05308  20892193.92008  20892199.47108
 -17195481.60808 -13399069.46808  20123159.07408  20123163.55808
 -23964899.54408 -18673963.99708  20224667.91908  20224673.39008
  -5196699.81009  -4049380.02608  19730486.16109  19730490.76608
 93 04 09 19 52 00.0000000  0  8 11 29 16 28 31 27 18 19
  -7894656.58508  -6151664.36408  21742141.04608  21742148.88108
   -422669.25508   -329410.50307  23126081.73608  23126095.82807
  -5690918.43108  -4434481.37708  22889042.85008  22889051.32508
  -4528758.66607  -3528907.87107  23592841.21507  23592850.95207
 -17324259.43908 -13499405.57608  20914509.65608  20914515.21008
 -17399819.19408 -13558293.51608  20084274.84708  20084279.36008
 -23677504.61808 -18450020.32608  20279357.61408  20279363.23408
  -5180179.54309  -4036507.18608  19733629.93809  19733634.53608
 93 04 09 19 54 00.0000000  0  8 11 29 16 28 31 27 18 19
  -7962964.44608  -6204891.11108  21729142.45908  21729150.13208
     -7698.63607     -6058.61907  23205049.46807  23205064.06507
  -5730415.69308  -4465258.73308  22881527.02708  22881535.61008
  -4213671.47507  -3283385.69707  23652800.55607  23652810.13707
 -17197581.91908 -13400695.94908  20938615.70008  20938621.31108
 -17601465.66008 -13715420.57108  20045902.75608  20045907.21708
 -23383412.49308 -18220858.08408  20335321.78208  20335327.51908
  -5160135.37209  -4020888.43408  19737444.32109  19737448.95408
 93 04 09 19 56 00.0000000  0  8 11 29 16 28 31 27 18 19
  -8021405.34608  -6250429.33608  21718021.39408  21718028.98008
    409933.01007    319366.72507  23284523.55407  23284538.46807
  -5761394.22608  -4489398.09908  22875632.18308  22875640.82708
  -3892928.68407  -3033456.51107  23713836.21207  23713845.70907
 -17061371.48808 -13294558.09108  20964535.70008  20964541.27408
 -17800134.14308 -13870227.09408  20008097.33008  20008101.79308
 -23082803.62208 -17986617.86108  20392526.06508  20392531.95908
  -5136395.33809  -4002389.79608  19741961.95409  19741966.60608
 93 04 09 19 58 00.0000000  0  8 11 31 29 16 28 27 18 19
  -8069778.64508  -6288122.69308  21708816.29808  21708823.75508
 -16915567.54108 -13180944.78608  20992281.44208  20992287.13208
    830429.40507    647024.23407  23364542.92807  23364558.30007
  -5783849.31108  -4506895.78308  22871359.24208  22871367.85408
  -3566388.79307  -2779010.09707  23775974.70407  23775984.38307
 -17995808.33008 -14022700.39808  19970861.71008  19970866.08708
 -22775281.72108 -17746990.89608  20451045.96708  20451051.99308
  -5109154.96609  -3981163.65008  19747145.65409  19747150.33008
 93 04 09 20 00 00.0000000  0  8 11 31 29 16 28 27 18 19
  -8108841.62408  -6318561.24508  21701382.71008  21701390.18108
 -16761066.29608 -13060554.37208  21021682.18408  21021687.88208
   1252269.14707    975728.49407  23444817.90607  23444833.77507
  -5798498.96508  -4518311.32908  22868571.69608  22868580.30108
  -3235429.57407  -2521119.94607  23838954.44507  23838964.08907
 -18189527.92208 -14173650.65408  19933998.10208  19934002.39708
 -22462135.66208 -17502981.46408  20510636.03408  20510642.18608
  -5078627.59109  -3957376.21708  19752954.92009  19752959.69508
 93 04 09 20 02 00.0000000  0  8 11 31 29 16 28 27 18 19
  -8139041.01908  -6342093.11808  21695635.88608  21695643.27608
 -16598452.46908 -12933842.46808  21052626.70608  21052632.46408
   1674990.12108   1305119.37008  23525260.63808  23525277.04308
  -5805826.26408  -4524021.15408  22867177.38308  22867186.22508
  -2900155.91107  -2259867.82307  23902754.97007  23902764.75407
 -18381337.05408 -14323112.22608  19897497.95808  19897502.24208
 -22143705.56408 -17254854.62408  20571231.62708  20571237.92108
  -5045647.02209  -3931677.20908  19759230.98309  19759235.83308
 93 04 09 20 04 00.0000000  0  8 11 31 29 16 28 27 18 19
  -8159869.33308  -6358322.87008  21691672.25708  21691679.67108
 -16427354.47808 -12800519.51908  21085185.61408  21085191.45008
   2099167.86808   1635645.36208  23605980.64208  23605997.45108
  -5805657.45908  -4523889.84808  22867209.71808  22867218.62208
  -2560020.62907  -1994827.32507  23967480.51507  23967490.16907
 -18570513.03308 -14470521.99408  19861498.86908  19861503.19308
 -21820174.75208 -17002753.19708  20632797.92608  20632804.29408
  -5009481.48109  -3903496.37908  19766113.17609  19766117.99508
 93 04 09 20 06 00.0000000  0  8 11 31 29 16 28 27 18 19
  -8171482.52608  -6367372.04108  21689462.21708  21689469.76808
 -16248063.14508 -12660812.15108  21119303.75108  21119309.63308
   2523831.13708   1966549.66808  23686793.00908  23686810.36308
  -5798126.64508  -4518021.94808  22868643.06008  22868652.04008
  -2216193.98107  -1726910.26407  24032908.31707  24032917.97407
 -18757487.22408 -14616216.10408  19825918.81608  19825923.04108
 -21491183.86008 -16746397.18508  20695403.21108  20695409.70108
  -4970270.81709  -3872942.71608  19773574.82509  19773579.67808
 93 04 09 20 08 00.0000000  0  8 11 31 16 29 28 27 18 19
  -8173166.13208  -6368683.86108  21689141.80308  21689149.25008
 -16059994.52508 -12514265.33408  21155092.14608  21155098.07808
  -5782432.71408  -4505793.22708  22871629.72508  22871638.72808
   2950299.40908   2298860.44707  23767948.74508  23767966.72907
  -1867980.62807  -1455574.88607  24099170.85407  24099180.62107
 -18941500.01308 -14759602.64508  19790902.30908  19790906.57108
 -21156248.08808 -16485408.83108  20759139.66608  20759146.31408
  -4927558.19909  -3839660.24708  19781702.82909  19781707.68808
 93 04 09 20 10 00.0000000  0  8 11 31 16 29 28 27 18 19
  -8164220.12608  -6361712.86708  21690844.12208  21690851.66708
 -15862578.81608 -12360435.08408  21192659.25408  21192665.22008
  -5758279.03308  -4486972.49708  22876226.26708  22876235.35808
   3378933.45208   2632858.81207  23849516.77608  23849535.15507
  -1514648.99307  -1180251.24707  24166407.42107  24166416.88707
 -19121813.59708 -14900106.70708  19756589.76408  19756594.03008
 -20815237.73608 -16219687.06208  20824032.25808  20824039.01608
  -4880321.92409  -3802852.86308  19790691.74609  19790696.60108
 93 04 09 20 12 00.0000000  0  8 11 16 31 29 28 27 18 19
  -8145391.61208  -6347041.22908  21694426.98708  21694434.48408
  -5726389.55108  -4462123.82408  22882294.74108  22882303.91908
 -15656691.31808 -12200003.46108  21231838.46408  21231844.51108
   3808480.63907   2967568.64507  23931258.54607  23931277.65507
  -1157297.58107   -901795.32607  24234409.04207  24234418.21307
 -19298861.95508 -15038066.42208  19722898.51908  19722902.82608
 -20468804.74508 -15949739.88308  20889956.77108  20889963.63408
  -4829496.16409  -3763248.50308  19800363.67709  19800368.56408
 93 04 09 20 14 00.0000000  0  8 16 11 29 31 27 28 18 19
  -5687578.40708  -4431881.65208  22889680.40508  22889689.79408
  -8117544.28308  -6325341.94608  21699726.06708  21699733.54508
   4237940.75107   3302210.55007  24012983.86007  24013003.53407
 -15443319.71208 -12033740.07408  21272441.91808  21272447.95108
 -19473819.64908 -15174397.02508  19689605.13108  19689609.40208
   -796708.82207   -620816.70207  24303026.45207  24303035.74107
 -20118125.90808 -15676484.25608  20956689.15308  20956696.17408
  -4775720.70609  -3721345.66008  19810596.84209  19810601.69108
 93 04 09 20 16 00.0000000  0  7 16 11 31 28 18 27 19
  -5642445.10608  -4396713.21108  22898269.38008  22898278.82708
  -8081010.50108  -6296874.02408  21706678.22008  21706685.58108
 -15222917.85308 -11861998.59108  21314383.17808  21314389.23708
   -433352.80207   -337681.89607  24372170.52107  24372180.32007
 -19763460.69608 -15400122.37808  21024180.18108  21024187.47208
 -19646610.26008 -15309039.00008  19656724.17308  19656728.36908
  -4719511.55109  -3677546.39908  19821293.14809  19821298.01908
 93 04 09 20 18 00.0000000  0  7 16 11 31 28 18 27 19
  -5590058.23608  -4355892.67408  22908238.49208  22908247.90408
  -8034704.42008  -6260791.36208  21715490.02808  21715497.36608
 -14994519.76608 -11684026.29808  21357846.09108  21357852.23608
    -66589.31907    -51892.06907  24441963.02107  24441972.69007
 -19403975.98008 -15120005.07808  21092588.39608  21092595.83608
 -19816232.95708 -15441212.47608  19624446.04408  19624450.18008
  -4659719.01709  -3630954.91408  19832671.38609  19832676.31408
 93 04 09 20 20 00.0000000  0  7 16 11 31 18 02 27 19
  -5529857.08808  -4308983.08208  22919694.81708  22919704.36008
  -7978427.21008  -6216939.01008  21726199.21408  21726206.57508
 -14758041.57308 -11499757.82408  21402846.62008  21402852.79308
 -19039492.57108 -14835992.70608  21161947.79808  21161955.38008
        -0.15818        -0.55418  20633181.15918  20633186.86218
 -19982554.51808 -15570813.66508  19592796.05108  19592800.19808
  -4595512.95409  -3580924.34308  19844889.48809  19844894.42908
 93 04 09 20 22 00.0000000  0  7 16 11 31 18 02 27 19
  -5464673.00508  -4258190.68908  22932099.21308  22932108.79108
  -7914317.64508  -6166983.53908  21738398.89208  21738406.30408
 -14515735.57108 -11310948.21008  21448956.17508  21448962.34908
 -18672485.25708 -14550013.69508  21231787.47608  21231795.23408
   -182006.10808   -141823.19708  20598546.56508  20598552.19608
 -20147050.91008 -15698992.64808  19561493.46308  19561497.59008
  -4529769.27609  -3529695.63508  19857400.16809  19857405.17408
 93 04 09 20 24 00.0000000  0  7 16 11 31 18 02 27 19
  -5393791.09408  -4202958.51408  22945588.01008  22945597.62608
  -7841814.49808  -6110487.62508  21752195.75008  21752203.35408
 -14267148.28608 -11117244.08808  21496260.78408  21496267.24508
 -18302556.07608 -14261757.93008  21302183.23008  21302191.14508
   -361207.72708   -281460.66208  20564445.44908  20564451.00308
 -20309545.99808 -15825612.16208  19530571.62008  19530575.77508
  -4461573.87609  -3476556.50508  19870377.42609  19870382.46608
 93 04 09 20 26 00.0000000  0  7 16 11 31 18 02 27 19
  -5316015.47708  -4142354.63008  22960388.44708  22960398.31808
  -7759924.87708  -6046677.55508  21767778.85408  21767786.39708
 -14011392.28508 -10917953.91408  21544929.76208  21544936.19108
 -17928583.38308 -13970351.41508  21373348.41108  21373356.52308
   -536461.62308   -418022.03108  20531095.56408  20531101.13808
 -20468606.12608 -15949555.04908  19500303.34408  19500307.52508
  -4389574.48709  -3420453.22508  19884078.55209  19884083.60608
 93 04 09 20 28 00.0000000  0  7 16 11 31 18 02 27 19
  -5232537.77708  -4077307.55108  22976274.22508  22976284.15308
  -7669402.20208  -5976140.39708  21785004.75608  21785012.25408
 -13749323.46008 -10713744.67408  21594799.94808  21594806.46408
 -17551543.43508 -13676554.84908  21445097.44808  21445105.64608
   -708467.26308   -552052.27108  20498363.95508  20498369.52408
 -20625304.29508 -16071657.44808  19470484.61008  19470488.84208
  -4314506.70309  -3361958.98608  19898363.57209  19898368.66108
 93 04 09 20 30 00.0000000  0  8 16 11 31 02 27 15 18 19
  -5142348.65008  -4007030.83708  22993436.83908  22993447.03108
  -7569361.89708  -5898186.91908  21804041.85608  21804049.28908
 -13480154.91808 -10504003.17908  21646021.13208  21646027.69808
   -876474.31208   -682966.72308  20466393.13908  20466398.63008
 -20778169.83408 -16190773.39808  19441395.23808  19441399.41108
        -0.35717        -0.92117  24191839.91017  24191856.49417
 -17170305.34208 -13379487.01208  21517645.25808  21517653.60408
  -4235692.17909  -3300545.22008  19913361.53709  19913366.71508
 93 04 09 20 32 00.0000000  0  8 16 11 31 02 27 15 18 19
  -5043462.77508  -3929977.46808  23012254.75208  23012264.92408
  -7457693.21908  -5811172.38108  21825291.76408  21825299.19908
 -13201870.22708 -10287158.19308  21698977.09908  21698983.78408
  -1038230.42708   -809010.37108  20435611.95308  20435617.41008
 -20924973.63508 -16305165.93408  19413459.34608  19413463.54708
   -275511.14107   -214683.32107  24139410.99507  24139427.31807
 -16783443.81008 -13078037.29208  21591263.16608  21591271.78008
  -4150626.65509  -3234260.55708  19929549.11509  19929554.37008
 93 04 09 20 34 00.0000000  0  8 16 11 31 02 27 15 18 19
  -4936890.22508  -3846934.48908  23032535.21808  23032545.63908
  -7335296.35408  -5715798.21108  21848583.05808  21848590.66208
 -12915460.52908 -10063982.04108  21753479.36508  21753485.91708
  -1194594.66108   -930852.50908  20405856.77708  20405862.28708
 -21066673.32908 -16415581.25208  19386494.80308  19386498.94008
   -548764.35307   -427606.67507  24087411.62407  24087427.64007
 -16391651.87508 -12772745.72808  21665819.33908  21665828.09808
  -4060319.45409  -3163891.46208  19946734.09509  19946739.36708
 93 04 09 20 36 00.0000000  0  8 16 11 31 02 27 15 18 19
  -4824499.07108  -3759357.59608  23053923.01308  23053933.61208
  -7203781.30308  -5613318.99408  21873609.50608  21873617.09908
 -12622621.38608  -9835795.93508  21809205.07208  21809211.57308
  -1347162.02008  -1049736.03208  20376824.05108  20376829.49008
 -21204814.32908 -16523223.55208  19360207.41708  19360211.55008
   -821108.23507   -639821.58907  24035585.56707  24035601.39407
 -15996661.15308 -12464961.63708  21740984.24908  21740993.24108
  -3966295.91709  -3090626.51108  19964626.29809  19964631.62608
 93 04 09 20 38 00.0000000  0  8 16 11 02 31 27 15 18 19
  -4706349.32308  -3667293.51808  23076406.61708  23076417.31108
  -7063622.81008  -5504104.62408  21900280.82608  21900288.44208
  -1496357.25308  -1165991.94708  20348433.08308  20348438.51108
 -12323909.24708  -9603033.48208  21866048.23308  21866054.79608
 -21339401.54008 -16628096.64208  19334596.29208  19334600.43008
  -1092750.26607   -851489.77107  23983893.06907  23983908.68407
 -15599024.80508 -12155116.03508  21816652.55508  21816661.71208
  -3868686.99009  -3014567.76108  19983200.81109  19983206.10408
 93 04 09 20 40 00.0000000  0  8 16 11 02 31 27 15 18 19
  -4581703.93408  -3570167.90308  23100126.41508  23100137.27808
  -6913748.90508  -5387319.82608  21928800.89708  21928808.53408
  -1641303.04408  -1278936.59108  20320850.72008  20320856.07608
 -12018329.70508  -9364919.86408  21924198.34708  21924205.06308
 -21469229.88908 -16729261.50608  19309890.68308  19309894.77608
  -1362343.44508  -1061561.53007  23932590.62908  23932605.93707
 -15197845.92508 -11842510.03508  21892995.09208  21893004.50708
  -3766420.90609  -2934880.07908  20002661.47809  20002666.85508
 93 04 09 20 42 00.0000000  0  8 16 11 02 31 27 15 18 19
  -4450482.26608  -3467917.99708  23125097.62008  23125108.65608
  -6753908.82408  -5262769.20508  21959217.56208  21959225.23108
  -1781530.54208  -1388204.65908  20294166.24108  20294171.55808
 -11705707.99308  -9121318.86308  21983688.40908  21983695.30608
 -21594245.36508 -16826676.10708  19286100.99608  19286105.10708
  -1629354.70207  -1269621.42408  23881779.37607  23881794.60208
 -14792790.61408 -11526883.49808  21970075.26308  21970084.88008
  -3658930.61908  -2851121.60908  20023116.38108  20023121.78208
 93 04 09 20 44 00.0000000  0  8 16 11 02 31 27 15 18 19
  -4312677.16008  -3360538.16808  23151321.63208  23151332.91508
  -6584263.82208  -5130578.38108  21991500.06008  21991507.67908
  -1916963.74308  -1493736.92308  20268394.04008  20268399.34108
 -11386274.02408  -8872409.61308  22044475.08508  22044481.78408
 -21713907.98208 -16919919.68008  19263329.96208  19263334.08008
  -1893657.18208  -1475570.55308  23831483.63908  23831498.74508
 -14383953.78708 -11208310.33408  22047875.13108  22047884.87608
  -3546477.79308  -2763496.22208  20044515.59508  20044521.10308
 93 04 09 20 46 00.0000000  0  8 16 11 02 31 27 15 18 19
  -4169061.41608  -3248630.54408  23178651.41808  23178662.92708
  -6405532.08008  -4991306.99908  22025511.75008  22025519.26908
  -2048077.75408  -1595903.60808  20243443.83708  20243449.15008
 -11060810.73108  -8618802.20808  22106408.93708  22106415.74008
 -21828691.01108 -17009361.01508  19241487.48608  19241491.59208
  -2155674.56308  -1679739.07108  23781622.82908  23781637.50008
 -13972308.40608 -10887548.72908  22126209.39308  22126219.65108
  -3429535.93508  -2672372.89908  20066769.02808  20066774.57208
 93 04 09 20 48 00.0000000  0  8 16 11 02 31 27 15 18 19
  -4019835.98208  -3132351.77508  23207048.57108  23207060.18908
  -6217777.18608  -4845004.60908  22061240.33408  22061248.03808
  -2175416.21708  -1695128.31008  20219212.10408  20219217.37608
 -10729442.78108  -8360593.78208  22169466.37908  22169473.29508
 -21938960.50108 -17095285.32308  19220503.93008  19220508.03208
  -2415168.79408  -1881941.48108  23732241.99808  23732256.48008
 -13557994.73808 -10564707.99608  22205051.39908  22205061.99608
  -3308210.70708  -2577833.95708  20089856.60008  20089862.20808
 93 04 09 20 50 00.0000000  0  8 16 11 02 31 27 15 18 19
  -3865310.08308  -3011942.81307  23236454.66308  23236466.37207
  -6021196.74008  -4691825.21508  22098648.47308  22098656.20208
  -2298937.41808  -1791378.52708  20195706.67308  20195711.94108
 -10392425.25508  -8097983.10208  22233598.98908  22233606.12408
 -22044566.88408 -17177576.03708  19200407.71708  19200411.80708
  -2672031.65907  -2082093.50708  23683362.06607  23683376.21108
 -13141277.35308 -10239994.28508  22284350.99608  22284361.74108
  -3182361.55408  -2479769.86908  20113805.08408  20113810.70508
 93 04 09 20 52 00.0000000  0  8 16 11 02 31 27 15 18 19
  -3706533.67508  -2888221.77107  23266669.41308  23266681.47007
  -5816927.11108  -4532654.25808  22137519.76608  22137527.60008
  -2419576.57908  -1885383.00308  20172749.78408  20172755.03208
 -10050946.55508  -7831896.19808  22298580.29608  22298587.63908
 -22146237.95908 -17256800.23908  19181060.33108  19181064.44108
  -2927088.45407  -2280838.25707  23634825.78307  23634839.78307
 -12723342.96208  -9914332.28808  22363882.09908  22363893.26008
  -3052760.91808  -2378782.55308  20138467.37508  20138473.00408
 93 04 09 20 54 00.0000000  0  8 16 02 11 31 27 15 18 19
  -3543605.05808  -2761265.22507  23297674.25808  23297686.34807
  -2537397.41608  -1977191.37308  20150329.14508  20150334.34908
  -5605137.01208  -4367623.21708  22177822.22308  22177830.15208
  -9705223.92308  -7562502.34608  22364369.56208  22364376.94208
 -22244108.23008 -17333062.76308  19162436.22408  19162440.31208
  -3180193.11407  -2478061.89207  23586660.94007  23586674.78607
 -12304114.60708  -9587662.09808  22443659.54708  22443670.92708
  -2919872.65008  -2275233.46508  20163755.34808  20163761.02208
 93 04 09 20 56 00.0000000  0  8 16 02 11 31 27 15 18 19
  -3375813.53007  -2630519.44807  23329604.55407  23329617.01007
  -2651336.23708  -2065974.79908  20128647.29608  20128652.48408
  -5384783.04508  -4195919.07008  22219754.40508  22219762.35608
  -9354258.57108  -7289023.27508  22431156.33008  22431163.74108
 -22336748.35608 -17405249.85108  19144807.37908  19144811.46008
  -3429981.04807  -2672701.09907  23539127.31707  23539141.00007
 -11882747.42108  -9259325.32108  22523844.00308  22523855.75408
  -2782229.63408  -2167979.43108  20189948.06708  20189953.83708
 93 04 09 20 58 00.0000000  0  8 16 02 11 31 27 15 18 19
  -3202795.67307  -2495701.24707  23362529.41507  23362542.15907
  -2760780.74708  -2151256.13108  20107820.66008  20107825.82008
  -5155467.96108  -4017232.24508  22263391.81008  22263399.78408
  -8997692.19108  -7011179.75008  22499009.11508  22499016.59508
 -22423389.06608 -17472762.08608  19128320.21208  19128324.27908
  -3675729.10207  -2864192.34007  23492362.65907  23492375.99607
 -11459225.31908  -8929309.40708  22604438.60508  22604450.69408
  -2639089.13708  -2056441.66808  20217187.07308  20217192.93508
 93 04 09 21 00 00.0000000  0  8 16 02 11 31 27 15 18 19
  -3024690.70007  -2356919.07007  23396422.42707  23396435.22807
  -2866144.35308  -2233357.51208  20087770.49908  20087775.61308
  -4917307.55808  -3831652.96208  22308712.25108  22308720.32908
  -8635676.40008  -6729089.94108  22567898.79508  22567906.27808
 -22504064.61408 -17535626.16808  19112968.20508  19112972.25308
  -3917224.27507  -3052369.64907  23446407.01307  23446420.15007
 -11033225.60708  -8597362.96508  22685504.66108  22685517.02208
  -2490717.67008  -1940827.81308  20245421.43108  20245427.28608
 93 04 09 21 02 00.0000000  0  8 02 16 11 31 27 15 18 19
  -2968730.04808  -2313294.28508  20068248.97008  20068254.05508
  -2842839.11907  -2215217.40307  23431028.15107  23431041.39307
  -4671941.62108  -3640458.95308  22355404.13108  22355412.21608
  -8269882.80408  -6444056.42508  22637507.18608  22637514.95508
 -22580148.23408 -17594912.14708  19098489.99108  19098494.05408
  -4155774.55007  -3238252.24307  23401011.77307  23401024.80107
 -10606448.27208  -8264810.56308  22766718.68808  22766731.48808
  -2338414.63808  -1822150.36708  20274403.98208  20274409.89708
 93 04 09 21 04 00.0000000  0  8 02 16 11 31 27 15 18 19
  -3067295.68808  -2390098.55908  20049492.47008  20049497.53308
  -2656115.19707  -2069719.10107  23466561.20007  23466574.60907
  -4418399.87208  -3442894.19408  22403651.65008  22403659.76108
  -7899369.12908  -6155344.91808  22708014.05108  22708021.76308
 -22650672.39808 -17649866.07408  19085069.68908  19085073.78008
  -4390073.63507  -3420822.23907  23356425.52507  23356438.38407
 -10178049.25808  -7930994.59408  22848241.38708  22848254.49008
  -2181299.20508  -1699722.98108  20304302.17508  20304308.14608
 93 04 09 21 06 00.0000000  0  8 02 16 11 31 27 15 18 19
  -3162425.18308  -2464225.33308  20031389.84508  20031394.90308
  -2465509.91407  -1921196.47507  23502832.82707  23502846.54507
  -4157082.80008  -3239270.75008  22453378.93908  22453387.11308
  -7524558.10508  -5863284.81907  22779338.51608  22779346.41207
 -22715831.76108 -17700639.62208  19072670.30908  19072674.41308
  -4620182.97007  -3600127.52007  23312636.72607  23312649.38107
  -9748456.40408  -7596248.40808  22929991.32608  22930004.86808
  -2019657.22308  -1573768.42208  20335061.83408  20335067.88308
 93 04 09 21 08 00.0000000  0  8 02 16 11 31 27 15 18 19
  -3254040.46408  -2535613.79308  20013955.98908  20013961.03908
  -2271773.38707  -1770233.89407  23539700.57707  23539714.30607
  -3888382.34008  -3029894.03408  22504511.13708  22504519.19808
  -7145861.65708  -5568197.08907  22851402.45608  22851410.26107
 -22775540.85608 -17747166.19208  19061308.04008  19061312.17208
  -4846153.63308  -3776207.88707  23269635.34108  23269647.80807
  -9318246.64108  -7261021.54707  23011858.71908  23011872.41307
  -1852950.42608  -1443867.25108  20366785.18308  20366791.28408
 93 04 09 21 10 00.0000000  0  8 02 16 11 31 27 15 18 19
  -3342943.10008  -2604888.55108  19997038.36708  19997043.42308
  -2074792.37107  -1616743.11407  23577185.51107  23577199.54007
  -3613014.67308  -2815322.05108  22556911.98308  22556920.07508
  -6764011.94508  -5270652.26507  22924066.36508  22924074.26207
 -22830089.78008 -17789671.86108  19050927.69908  19050931.84308
  -5068359.63308  -3949354.79507  23227350.68008  23227362.77807
  -8887801.99108  -6925611.64707  23093770.82108  23093784.84607
  -1682245.57908  -1310850.73408  20399269.39808  20399275.59508
 93 04 09 21 12 00.0000000  0  8 02 16 11 31 27 15 18 19
  -3429459.91708  -2672304.22208  19980574.72508  19980579.76508
  -1875139.06207  -1461170.04007  23615179.13107  23615193.26207
  -3331478.28008  -2595943.31908  22610486.93008  22610495.08508
  -6379518.01108  -4971046.98007  22997233.21408  22997241.50207
 -22880099.88208 -17828640.82408  19041411.11708  19041415.28308
  -5286953.26508  -4119686.85407  23185753.09708  23185765.18007
  -8457682.36208  -6590455.06207  23175621.00108  23175635.51907
  -1508288.90808  -1175300.32708  20432372.46408  20432378.64608
 93 04 09 21 14 00.0000000  0  8 02 16 11 31 27 15 18 19
  -3514182.07408  -2738321.41908  19964452.61308  19964457.62408
  -1674087.41307  -1304507.37307  23653438.46507  23653453.03207
  -3044386.92008  -2372236.01108  22665118.82708  22665127.01808
  -5993003.36208  -4669867.11107  23070784.90008  23070793.12907
 -22925841.64208 -17864283.79208  19032706.76008  19032710.93808
  -5502203.92808  -4287414.01207  23144791.85108  23144803.88707
  -8028641.77808  -6256139.26007  23257266.07508  23257280.85007
  -1330870.80208  -1037052.69608  20466134.15008  20466140.44808
 93 04 09 21 16 00.0000000  0  8 02 16 11 31 27 15 18 19
  -3595720.02308  -2801857.41008  19948936.34608  19948941.32808
  -1469881.31307  -1145386.58007  23692298.39207  23692312.92707
  -2750443.13908  -2143189.14508  22721054.65908  22721062.83508
  -5603173.34908  -4366103.83507  23144967.40208  23144975.62907
 -22965615.90408 -17895276.71508  19025137.98908  19025142.15008
  -5712465.49908  -4451253.53507  23104779.70108  23104791.72307
  -7599246.25207  -5921546.94607  23338978.39007  23338993.70307
  -1148558.65308   -894991.53608  20500827.18208  20500833.57908
 93 04 09 21 18 00.0000000  0  8 02 16 11 31 27 15 18 19
  -3672774.60708  -2861899.87108  19934273.31508  19934278.32908
  -1261604.52707   -983093.82707  23731932.61307  23731947.34807
  -2448671.72608  -1908042.84208  22778480.05108  22778488.44208
  -5209054.84608  -4058998.85907  23219965.97808  23219974.44607
 -22997972.16808 -17920489.36708  19018980.80408  19018984.90308
  -5916415.23208  -4610174.66108  23065968.89308  23065980.65708
  -7168440.81107  -5585856.08407  23420958.99207  23420974.98007
   -960165.77008   -748192.16108  20536677.36608  20536683.90708
 93 04 09 21 20 00.0000000  0  8 02 16 11 31 27 15 18 19
  -3745981.48108  -2918944.09108  19920342.44308  19920347.38608
  -1049734.79807   -818001.30507  23772250.75507  23772265.58207
  -2139518.42208  -1667144.45708  22837310.17308  22837318.65308
  -4811089.00808  -3748895.97207  23295696.56108  23295704.88807
 -23023502.39608 -17940383.03608  19014122.51608  19014126.68408
  -6114150.46408  -4764253.23707  23028340.42408  23028351.93307
  -6736788.77407  -5249505.55707  23503100.91107  23503117.30407
   -766343.75808   -597162.31408  20573560.65808  20573567.28408
 93 04 09 21 22 00.0000000  0  8 02 16 11 31 27 15 18 19
  -3816138.11908  -2973611.48308  19906992.00308  19906996.87308
   -835322.54907   -650927.66707  23813052.75707  23813067.72807
  -1824014.30408  -1421297.36308  22897348.72108  22897357.47308
  -4410302.95207  -3436595.44007  23371963.67407  23371972.40207
 -23042986.84208 -17955565.74608  19010414.77808  19010418.95508
  -6306354.58408  -4914021.86708  22991764.69408  22991775.88708
  -6305225.62007  -4913224.31407  23585225.87307  23585242.69607
   -567777.50308   -442435.63408  20611346.74408  20611353.36908
 93 04 09 21 24 00.0000000  0  8 02 16 11 31 27 15 18 19
  -3882815.34309  -3025567.64408  19894303.72009  19894308.56508
   -618299.37307   -481819.54507  23854351.47407  23854366.93307
  -1501972.14408  -1170355.72008  22958631.51108  22958640.23908
  -4006498.94808  -3121943.29207  23448805.34308  23448814.07407
 -23055984.70008 -17965694.00108  19007941.42008  19007945.57808
  -6492493.71508  -5059064.55308  22956342.85208  22956354.01108
  -5873611.58107  -4576903.43107  23667360.80107  23667377.90807
   -363950.87808   -283609.96008  20650133.89008  20650140.56208
 93 04 09 21 26 00.0000000  0  8 02 16 11 31 27 15 18 19
  -3946029.33408  -3074825.20108  19882274.35208  19882279.19008
   -398926.24407   -310880.42107  23896097.53207  23896113.25207
  -1173773.19508   -914616.63308  23021086.00608  23021094.79908
  -3600045.86307  -2805226.81707  23526150.93007  23526159.54107
 -23062412.57608 -17970702.78908  19006718.28708  19006722.46708
  -6672602.01208  -5199407.91908  22922068.86708  22922079.90908
  -5442467.56807  -4240948.86307  23749406.00007  23749423.79207
   -155131.17908   -120893.58608  20689871.19208  20689877.88308
 93 04 09 21 28 00.0000000  0  7 02 16 11 31 27 15 19
  -4006477.18508  -3121927.28208  19870771.45908  19870776.30108
   -177880.57407   -138637.90107  23938161.87407  23938177.90807
   -839966.75608   -654507.99208  23084607.42108  23084616.26008
  -3191476.57707  -2486861.29207  23603899.30307  23603908.00707
 -23062403.22008 -17970695.49408  19006720.04608  19006724.21108
  -6846884.43408  -5335211.64908  22888903.47808  22888914.16208
     58434.94408     45521.32108  20730511.62608  20730518.43708
 93 04 09 21 30 00.0000000  0  8 02 16 11 31 27 15 26 19
  -4064607.07509  -3167223.15908  19859709.62609  19859714.40408
     44516.47107     34657.75107  23980483.09707  23980499.24707
   -501135.55608   -390483.92308  23149085.14408  23149093.96608
  -2781355.68607  -2167286.60107  23681942.60607  23681951.49807
 -23056556.01408 -17966139.21508  19007832.73108  19007836.89608
  -7015580.52808  -5466662.39008  22856801.22808  22856811.84208
        -0.30118        -0.50018  22691574.91318  22691582.36818
    276129.51808    215153.21708  20771937.68708  20771944.60708
 93 04 09 21 32 00.0000000  0  8 02 16 11 31 27 15 26 19
  -4120392.52509  -3210692.21608  19849093.89209  19849098.60808
    267940.10107    208753.25907  24022999.95907  24023016.39707
   -157454.99208   -122681.12908  23214485.48008  23214494.55508
  -2369835.27307  -1846621.28707  23760252.34807  23760261.21607
 -23045050.80708 -17957174.09608  19010022.07508  19010026.23708
  -7178521.88208  -5593629.00908  22825794.04308  22825804.36108
   -312837.88108   -243769.56108  22632043.48908  22632050.85608
    497829.38108    387906.08208  20814126.03608  20814132.91608
 93 04 09 21 34 00.0000000  0  8 02 16 11 31 27 15 26 19
  -4173466.40009  -3252048.35908  19838994.12409  19838998.85708
    492646.00207    383847.96107  24065760.42607  24065777.04807
    191307.71408    149081.77007  23280852.93108  23280861.86007
  -1956658.28007  -1524665.06707  23838877.08507  23838886.02107
 -23027129.28408 -17943209.25308  19013432.41808  19013436.63508
  -7335136.88308  -5715665.97708  22795990.58608  22796000.93108
   -620338.61608   -483380.06608  22573527.71108  22573534.99608
    724407.66508    564460.32408  20857242.65108  20857249.70008
 93 04 09 21 36 00.0000000  0  8 02 16 11 31 27 15 26 19
  -4223739.37309  -3291221.97408  19829427.39109  19829432.10108
    718660.11507    559962.10807  24108770.17207  24108786.85607
    545133.19208    424789.73107  23348183.83208  23348192.92707
  -1541817.78507  -1201412.44307  23917818.53807  23917827.20507
 -23001968.81808 -17923603.69208  19018220.25008  19018224.46808
  -7485109.83908  -5832527.37008  22767451.19008  22767461.30008
   -921550.29008   -718090.08208  22516208.80508  22516215.92908
    955893.61208    744838.73008  20901293.17708  20901300.21108
 93 04 09 21 38 00.0000000  0  8 02 16 11 31 27 15 26 19
  -4271011.85409  -3328057.54208  19820431.71709  19820436.33908
    945573.90407    736777.30806  24151950.98407  24151967.70206
    904015.55208    704438.17507  23416477.08808  23416486.23307
  -1125287.90307   -876843.44207  23997081.37807  23997090.02607
 -22970079.64108 -17898755.00808  19024288.57208  19024292.76808
  -7628112.23508  -5943957.20908  22740238.17408  22740248.21908
  -1216327.06108   -947785.86808  22460114.32308  22460121.36008
   1192347.82608    929088.53808  20946289.06708  20946296.24808
 93 04 09 21 40 00.0000000  0  8 19 02 16 11 31 27 15 26
   1433210.15908   1116773.22008  20992123.81708  20992131.03008
  -4315380.49709  -3362630.37508  19811988.50709  19811993.11808
   1173395.81506    914300.08906  24195304.42406  24195321.58006
   1267496.27208    987669.75707  23485645.31708  23485654.39807
   -707495.93607   -551290.90407  24076584.25207  24076592.76107
 -22931418.15108 -17868629.19008  19031645.65708  19031649.83008
  -7764271.58108  -6050054.85108  22714327.54708  22714337.44808
  -1504913.27708  -1172657.74108  22405197.74208  22405204.73908
 93 04 09 21 42 00.0000000  0  7 19 02 11 31 27 15 26
   1678021.18208   1307534.81108  21038709.99708  21038717.24908
  -4357964.21209  -3395812.32308  19803884.91309  19803889.53108
   1634558.41008   1273692.05107  23555494.80808  23555504.11907
   -289421.40607   -225518.23907  24156141.06707  24156149.46707
 -22886722.71008 -17833801.56908  19040150.89808  19040155.05908
  -7894279.25508  -6151358.94208  22689587.52508  22689597.26908
  -1788243.74008  -1393434.17308  22351281.32908  22351288.13508
 93 04 09 21 44 00.0000000  0  7 19 02 11 31 27 15 26
   1926511.12808   1501163.06008  21085996.23608  21086003.56908
  -4398980.79409  -3427773.10608  19796079.60909  19796084.18208
   2004842.20407   1562224.82507  23625957.45707  23625966.89007
    128612.86907    100223.06507  24235689.93007  24235698.34807
 -22836486.45908 -17794656.40708  19049710.48808  19049714.65008
  -8018173.20208  -6247899.08208  22666010.94008  22666020.42408
  -2065940.31508  -1609820.57208  22298436.97708  22298443.70108
 93 04 09 21 46 00.0000000  0  8 19 02 13 11 31 27 15 26
   2178685.01308   1697661.86608  21133983.53008  21133990.90908
  -4438247.77009  -3458370.59308  19788607.19009  19788611.75708
         0.48518         0.08817  22676716.19218  22676730.66717
   2378448.82607   1853346.83407  23697052.56107  23697061.93107
    546748.99407    426043.66807  24315258.51907  24315266.81207
 -22780356.20308 -17750918.49608  19060391.68208  19060395.82208
  -8135532.85108  -6339347.54208  22643677.43408  22643687.13408
  -2337630.50108  -1821526.71508  22246735.80708  22246742.41808
 93 04 09 21 48 00.0000000  0  8 19 02 13 11 31 27 15 26
   2434904.48308   1897313.04608  21182740.85908  21182748.17108
  -4475939.05309  -3487740.26508  19781434.68409  19781439.16408
   -488119.02808   -380351.25507  22583829.04508  22583843.24507
   2755134.86507   2146868.44907  23768733.48007  23768742.93507
    964789.89707    751789.93107  24394808.99507  24394817.19907
 -22717755.11008 -17702138.39708  19072304.28008  19072308.40908
  -8246288.26708  -6425649.85308  22622600.97708  22622610.34108
  -2603480.27408  -2028681.91508  22196145.82208  22196152.34508
 93 04 09 21 50 00.0000000  0  7 19 13 11 02 27 15 26
   2696253.00608   2100960.88908  21232474.04508  21232481.54708
   -973961.66408   -758928.39707  22491375.10708  22491388.93007
   3135789.49107   2443482.50207  23841169.44007  23841178.98007
  -4510537.84909  -3514700.21308  19774850.65709  19774855.07508
 -22647492.44008 -17647388.25208  19085674.82008  19085678.96508
  -8349241.36608  -6505872.44008  22603009.10908  22603018.33908
  -2862146.88808  -2230239.88708  22146922.94908  22146929.36108
 93 04 09 21 52 00.0000000  0  7 19 13 11 02 27 15 26
   2962828.82108   2308681.95808  21283201.97708  21283209.61808
  -1456823.97308  -1135183.19607  22399488.31608  22399501.62607
   3520727.38107   2743434.12507  23914420.78707  23914430.17607
  -4541784.68609  -3539048.24708  19768904.46709  19768908.80208
 -22569787.32408 -17586838.80508  19100461.62008  19100465.73508
  -8443775.06908  -6579534.46208  22585019.57408  22585028.55308
  -3113119.79208  -2425802.77808  22099164.07308  22099170.38108
 93 04 09 21 54 00.0000000  0  7 13 11 15 02 27 26 19
  -1937086.14608  -1509411.82207  22308096.28408  22308109.19907
   3909185.89307   3046129.03507  23988342.00307  23988351.38307
  -8530352.92308  -6646997.14908  22568543.93408  22568552.72608
  -4570205.48009  -3561194.18408  19763496.09109  19763500.40908
 -22484853.43308 -17520656.53008  19116623.98008  19116628.11908
  -3356690.81508  -2615597.95008  22052813.71808  22052819.91908
   3234190.82508   2520132.51908  21334840.66308  21334848.45108
 93 04 09 21 56 00.0000000  0  7 13 11 15 02 27 26 19
  -2415294.33108  -1882039.93307  22217094.85208  22217107.54107
   4300230.58907   3350839.20607  24062755.24007  24062764.71807
  -8609619.49608  -6708762.76608  22553459.52908  22553468.35808
  -4596789.41409  -3581908.78408  19758437.23709  19758441.51108
 -22393260.29108 -17449285.22408  19134053.56508  19134057.61308
  -3593541.94708  -2800156.81508  22007742.18408  22007748.13108
   3509211.61308   2734434.09608  21387175.70308  21387183.51508
 93 04 09 21 58 00.0000000  0  7 13 11 02 27 15 26 19
  -2890933.46008  -2252666.19107  22126582.60708  22126594.79707
   4693992.26807   3657666.46907  24137685.61507  24137695.05807
  -4621222.64109  -3600947.50608  19753787.55709  19753791.85308
 -22294488.89408 -17372320.49108  19152849.16408  19152853.19408
  -8681156.05208  -6764505.04808  22539846.24208  22539855.03908
  -3823143.54708  -2979066.73808  21964050.14308  21964056.01008
   3788651.73508   2952179.31808  21440351.59708  21440359.50408
 93 04 09 22 00 00.0000000  0  7 13 11 02 27 15 26 19
  -3364223.68908  -2621462.18807  22036517.22808  22036529.04707
   5089866.81007   3966140.15607  24213018.13007  24213027.35207
  -4643884.57309  -3618606.00108  19749475.07809  19749479.32808
 -22189314.69508 -17290366.57308  19172863.12808  19172867.21208
  -8745286.77108  -6814476.57008  22527642.35408  22527650.62908
  -4046021.29708  -3152737.36508  21921637.65308  21921643.51408
   4071942.79608   3172925.27408  21494260.37708  21494268.33108
 93 04 09 22 02 00.0000000  0  7 13 11 02 27 15 26 19
  -3834963.40208  -2988270.82307  21946937.15208  21946948.75407
   5487675.73407   4276121.15807  24288718.71807  24288727.69607
  -4664565.96309  -3634721.23808  19745539.40309  19745543.63008
 -22077575.53208 -17203297.08408  19194126.34708  19194130.42708
  -8801918.25008  -6858604.54208  22516865.31808  22516873.64408
  -4262098.61008  -3321109.00508  21880519.34108  21880525.03408
   4359258.30308   3396807.14008  21548934.98008  21548943.01408
 93 04 09 22 04 00.0000000  0  7 13 11 02 27 15 26 19
  -4302447.92808  -3352543.00807  21857976.69508  21857987.98807
   5887740.26507   4587859.59207  24364848.58407  24364857.77307
  -4682963.81509  -3649057.08608  19742038.27709  19742042.46108
 -21958786.43608 -17110734.11708  19216731.11208  19216735.16508
  -8850462.43408  -6896430.72208  22507627.41408  22507635.73808
  -4470626.56708  -3483598.01708  21840837.34408  21840843.10408
   4650888.80808   3624051.31308  21604430.72108  21604438.87508
 93 04 09 22 06 00.0000000  0  7 13 11 02 27 15 26 19
  -4766846.48908  -3714410.60507  21769603.56608  21769614.41507
   6289516.38807   4900931.85207  24441304.00707  24441313.35207
  -4699569.45909  -3661996.41008  19738878.25509  19738882.35708
 -21833120.08708 -17012812.28108  19240644.69108  19240648.73408
  -8891204.38308  -6928177.26308  22499874.21008  22499882.26308
  -4672008.25808  -3640518.49008  21802515.41508  21802521.09908
   4946376.41508   3854301.00908  21660660.46308  21660668.65108
 93 04 09 22 08 00.0000000  0  7 13 15 02 11 27 26 19
  -5227882.22408  -4073657.87307  21681870.52408  21681880.90907
  -8923994.02708  -6953727.21808  22493634.12408  22493642.14208
  -4714241.34609  -3673428.91608  19736086.22609  19736090.28908
   6692904.79407   5215260.19307  24518066.46307  24518076.05207
 -21700549.37208 -16909510.46308  19265872.11008  19265876.16308
  -4866339.57808  -3791945.18608  21765535.28908  21765540.75508
   5245569.97908   4087438.46108  21717595.38508  21717603.64008
 93 04 09 22 10 00.0000000  0  7 13 15 26 02 11 27 19
  -5685416.78408  -4430176.99307  21594803.63008  21594813.66807
  -8948822.26308  -6973073.51708  22488909.16608  22488917.24908
  -5052673.44608  -3937140.16708  21730076.95508  21730082.42808
  -4727130.67009  -3683472.42508  19733633.34209  19733637.37208
   7097670.99807   5530662.14707  24595091.32107  24595100.73107
 -21561289.04408 -16800995.98008  19292372.54408  19292376.56008
   5548372.12108   4323387.78108  21775217.00008  21775225.41608
 93 04 09 22 12 00.0000000  0  6 13 15 26 19 02 27
  -6139867.19308  -4784292.91707  21508323.57808  21508333.35407
  -8966238.72908  -6986644.45108  22485594.83808  22485602.63008
  -5232185.43608  -4077019.45008  21695916.77608  21695922.24808
   5854242.18608   4561727.64808  21833422.41908  21833430.99408
  -4738601.89609  -3692410.93908  19731450.37509  19731454.38908
 -21415924.15008 -16687724.70008  19320034.56308  19320038.62508
 93 04 09 22 14 00.0000000  0  6 13 15 26 19 02 27
  -6588876.82108  -5134169.35607  21422879.02008  21422888.43907
  -8974025.91208  -6992712.06108  22484112.59608  22484120.45808
  -5402649.91408  -4209848.73408  21663478.29708  21663483.80608
   6165379.90808   4804172.12008  21892630.40208  21892639.03808
  -4746860.86609  -3698846.41708  19729878.66709  19729882.67108
 -21261928.95308 -16567728.50008  19349338.92108  19349343.03508
 93 04 09 22 16 00.0000000  0  6 13 15 26 19 02 27
  -7032519.02108  -5479863.44008  21338455.83008  21338465.08208
  -8972401.28708  -6991445.82508  22484421.24908  22484429.07408
  -5564257.39908  -4335776.46808  21632725.34308  21632730.74108
   6481525.91708   5050519.14408  21952791.39808  21952799.93608
  -4752092.71509  -3702923.09708  19728882.98509  19728886.97608
 -21100035.15808 -16441577.54408  19380146.26508  19380150.46108
 93 04 09 22 18 00.0000000  0  6 13 15 26 19 02 27
  -7472282.51008  -5822535.17308  21254770.82508  21254779.70008
  -8963001.63308  -6984121.16808  22486209.79708  22486217.61608
  -5718690.75808  -4456114.01208  21603337.54208  21603342.90508
   6800858.28408   5299349.04908  22013558.64708  22013567.59008
  -4755969.06108  -3705943.53108  19728145.24708  19728149.28508
 -20931703.45508 -16310410.04608  19412178.75708  19412182.94708
 93 04 09 22 20 00.0000000  0  6 13 15 26 19 02 27
  -7907970.73008  -6162031.41308  21171861.30508  21171869.87408
  -8945783.37708  -6970704.13008  22489486.41508  22489493.97908
  -5865362.09308  -4570403.23608  21575426.75508  21575432.14308
   7123453.90708   5550721.70508  22074946.92208  22074956.08108
  -4758125.12009  -3707623.50308  19727734.92009  19727738.88208
 -20756978.76308 -16174261.03808  19445427.86508  19445432.12508
 93 04 09 22 22 00.0000000  0  6 13 15 26 19 02 27
  -8337860.11708  -6497009.11508  21090055.25908  21090063.63408
  -8919177.51508  -6949972.07408  22494549.14808  22494556.73208
  -6003155.09508  -4677774.28608  21549205.45908  21549210.85508
   7450480.49908   5805547.03608  22137178.59208  22137187.72408
  -4757197.87809  -3706900.90408  19727911.26309  19727915.25408
 -20574088.08808 -16031748.92008  19480230.87108  19480235.11508
 93 04 09 22 24 00.0000000  0  6 15 26 19 02 27 13
  -8883847.36308  -6922441.94408  22501272.11908  22501279.54708
  -6132839.27208  -4778826.76308  21524527.34508  21524532.70108
   7781349.95508   6063366.75608  22200141.50208  22200150.64808
  -4754191.54109  -3704558.22108  19728483.30309  19728487.25508
 -20384006.48408 -15883633.47908  19516402.26008  19516406.49708
  -8762451.88408  -6827858.88008  21009257.42708  21009265.48508
 93 04 09 22 26 00.0000000  0  6 26 15 19 02 13 27
  -6254253.55108  -4873435.13908  21501422.91908  21501428.22808
  -8839997.84308  -6888273.35608  22509616.28208  22509623.69708
   8115783.11408   6323963.38008  22263782.39408  22263791.81008
  -4748944.52508  -3700469.52508  19729481.72208  19729485.62808
  -9181783.56608  -7154609.89708  20929460.51708  20929468.45308
 -20186867.23708 -15730018.53708  19553916.63808  19553920.87108
 93 04 09 22 28 00.0000000  0  6 26 15 19 02 13 27
  -6367234.57608  -4961472.12708  21479923.17408  21479928.39808
  -8787675.89208  -6847502.87707  22519572.68608  22519580.07607
   8453665.33308   6587247.53808  22328079.77108  22328089.47508
  -4741589.72608  -3694738.40508  19730881.22008  19730885.11608
  -9595734.82508  -7477168.41008  20850687.53208  20850695.21608
 -19983173.39108 -15571296.10308  19592678.32908  19592682.55108
 93 04 09 22 30 00.0000000  0  6 26 15 19 02 13 27
  -6473876.04208  -5044569.17708  21459629.80708  21459635.00008
  -8728296.50008  -6801233.09008  22530872.20608  22530879.55708
   8793329.72308   6851920.42508  22392716.21908  22392725.93308
  -4733927.03008  -3688767.39208  19732339.27508  19732343.18108
 -10005548.59308  -7796502.93308  20772701.91708  20772709.39308
 -19774186.23108 -15408448.99808  19632447.27308  19632451.51108
 93 04 09 22 32 00.0000000  0  6 26 15 19 02 13 27
  -6573002.17608  -5121810.14408  21440766.67008  21440771.79208
  -8661280.00808  -6749012.33408  22543624.83508  22543632.18608
   9135427.78308   7118489.70508  22457815.78008  22457825.62608
  -4725327.38308  -3682066.29208  19733975.69008  19733979.56808
 -10410467.54108  -8112023.34708  20695647.76008  20695655.05108
 -19558772.07808 -15240593.86308  19673439.27908  19673443.52608
 93 04 09 22 34 00.0000000  0  6 26 15 19 02 13 27
  -6662953.01308  -5191901.58308  21423649.52208  21423654.59608
  -8584882.71808  -6689481.91307  22558162.73408  22558170.01507
   9481669.26608   7388287.63208  22523703.90608  22523713.89608
  -4713415.07608  -3672783.92808  19736242.48408  19736246.30408
 -10808569.97608  -8422232.23408  20619890.77008  20619897.86008
 -19335598.30208 -15066692.31008  19715907.91608  19715912.16908
 93 04 09 22 36 00.0000000  0  6 26 15 19 02 13 27
  -6743875.66508  -5254958.13108  21408250.33608  21408255.47908
  -8499272.51508  -6622772.57808  22574453.83608  22574461.08908
   9831882.99108   7661180.77308  22590347.81508  22590358.03408
  -4698701.76308  -3661318.95908  19739042.34708  19739046.15508
 -11199840.78108  -8727117.83808  20545433.84908  20545440.74308
 -19104913.43108 -14886937.96808  19759805.88108  19759810.15208
 93 04 09 22 38 00.0000000  0  6 26 15 19 02 13 27
  -6815964.30408  -5311131.03508  21394532.24808  21394537.34408
  -8404806.05208  -6549162.32907  22592430.26808  22592437.20507
  10185861.90108   7937007.74408  22657708.17908  22657718.64908
  -4681711.78508  -3648079.98108  19742275.35708  19742279.14808
 -11584450.25208  -9026812.83508  20472244.56408  20472251.31208
 -18867440.53808 -14701894.25908  19804995.55108  19804999.91208
 93 04 09 22 40 00.0000000  0  6 26 15 19 02 13 27
  -6879463.84108  -5360611.12308  21382448.63008  21382453.71408
  -8301380.59908  -6468571.04507  22612111.32608  22612118.47607
  10543174.71008   8215432.47608  22725703.35908  22725713.94008
  -4662007.10408  -3632725.64508  19746024.94508  19746028.77108
 -11962106.20808  -9321089.56708  20400378.58308  20400385.15908
 -18622842.63608 -14511298.60908  19851541.10608  19851545.44908
 93 04 09 22 42 00.0000000  0  6 26 15 19 02 13 27
  -6935073.37608  -5403943.18808  21371866.53008  21371871.45108
  -8189734.95208  -6381574.47707  22633357.11108  22633364.02207
  10902951.07108   8495776.85508  22794167.14408  22794178.00108
  -4640466.85008  -3615941.00408  19750123.90308  19750127.71208
 -12333357.38208  -9610375.59708  20329731.37008  20329737.76708
 -18371649.64208 -14315563.92608  19899341.60408  19899346.01408
 93 04 09 22 44 00.0000000  0  6 26 15 19 02 13 27
  -6981682.52208  -5440262.00408  21362997.05408  21363002.03608
  -8069241.58608  -6287683.58607  22656286.05808  22656293.13807
  11266041.35608   8778703.40608  22863261.69708  22863272.72908
  -4616165.47308  -3597004.84708  19754748.35808  19754752.14808
 -12697384.69008  -9894032.67708  20260458.86608  20260465.07908
 -18113270.89608 -14114229.95708  19948509.51408  19948513.98508
 93 04 09 22 46 00.0000000  0  6 26 15 19 02 13 27
  -7019300.05408  -5469574.37908  21355838.64808  21355843.66008
  -7939520.17908  -6186602.04807  22680971.42908  22680978.47707
  11632853.38008   9064530.02308  22933064.47208  22933075.81908
  -4588849.32008  -3575719.54208  19759946.43108  19759950.25108
 -13053611.35008 -10171611.35808  20192670.79808  20192676.93508
 -17847407.81708 -13907064.08808  19999101.71608  19999106.15308
 93 04 09 22 48 00.0000000  0  6 26 15 19 02 13 27
  -7048107.76208  -5492021.96908  21350356.76408  21350361.71108
  -7800995.52408  -6078660.91307  22707331.59508  22707339.15107
  12002919.72008   9352892.41308  23003486.42308  23003497.99008
  -4559025.08508  -3552479.88108  19765621.85008  19765625.61708
 -13402266.45708 -10443290.12808  20126323.51108  20126329.49508
 -17574599.95108 -13694486.72308  20051015.45508  20051019.92208
 93 04 09 22 50 00.0000000  0  6 26 15 19 02 13 27
  -7068819.81208  -5508161.29108  21346415.51208  21346420.53308
  -7654448.40207  -5964468.50207  22735218.60107  22735226.11707
  12375461.68208   9643183.86008  23074379.51608  23074391.23108
  -4527490.30608  -3527907.31408  19771622.73308  19771626.45008
 -13743929.51208 -10709520.55108  20061306.79308  20061312.66908
 -17295781.27308 -13477225.61308  20104072.97608  20104077.58608
 93 04 09 22 52 00.0000000  0  6 26 15 19 02 13 27
  -7081255.53508  -5517851.47908  21344049.01508  21344054.08708
  -7499698.92508  -5843884.61108  22764666.74508  22764674.31108
  12750499.69008   9935420.21807  23145747.77108  23145759.77207
  -4493584.72908  -3501487.39708  19778074.71808  19778078.51408
 -14078224.21808 -10970009.42508  19997692.24708  19997697.94208
 -17010616.55308 -13255019.54508  20158338.19708  20158342.77708
 93 04 09 22 54 00.0000000  0  6 26 15 19 02 13 27
  -7085290.13908  -5520995.33908  21343281.26808  21343286.38308
  -7336457.05407  -5716683.26908  22795730.71807  22795738.26708
  13128133.19408  10229679.06008  23217609.82208  23217622.06908
  -4456789.50408  -3472815.81308  19785076.59608  19785080.43408
 -14404657.23608 -11224372.32508  19935573.69108  19935579.30108
 -16718667.43208 -13027526.93208  20213894.35908  20213899.07908
 93 04 09 22 56 00.0000000  0  6 26 15 19 02 13 27
  -7081047.28108  -5517689.21908  21344088.58708  21344093.74108
  -7164943.26208  -5583036.33207  22828368.99408  22828376.23007
  13508345.81208  10525947.61908  23289962.55408  23289975.23908
  -4417588.11608  -3442269.29008  19792536.41808  19792540.23508
 -14723248.81108 -11472625.01408  19874947.41308  19874952.92708
 -16420705.36808 -12795348.90608  20270594.81608  20270599.59108
 93 04 09 22 58 00.0000000  0  6 26 15 19 02 13 27
  -7068694.57808  -5508063.69108  21346439.26908  21346444.29708
  -6985523.35708  -5443228.92908  22862511.68208  22862519.24808
  13891014.73908  10824130.21608  23362782.78108  23362795.64908
  -4376571.04808  -3410307.91608  19800341.71608  19800345.50708
 -15034165.43908 -11714897.24208  19815781.60408  19815786.99208
 -16116448.35208 -12558265.73308  20328493.22008  20328498.02908
 93 04 09 23 00 00.0000000  0  6 26 15 19 02 13 27
  -7048158.87808  -5492061.78308  21350347.05608  21350352.07608
  -6798072.59107  -5297163.59508  22898182.34707  22898190.26108
  14275953.80908  11124081.80608  23436034.88208  23436047.91708
  -4332703.65508  -3376125.50208  19808689.38608  19808693.16008
 -15337078.24908 -11950932.73208  19758138.84308  19758144.14008
 -15805938.52708 -12316310.25408  20387581.43808  20387586.33708
 93 04 09 23 02 00.0000000  0  6 26 15 19 02 13 27
  -7019354.44208  -5469616.79008  21355828.39808  21355833.41308
  -6602505.67507  -5144774.03708  22935397.56107  22935405.54708
  14663180.25707  11425815.82807  23509722.11807  23509735.56807
  -4286110.20008  -3339818.86608  19817555.74408  19817559.55608
 -15631700.59108 -12180508.13008  19702073.72808  19702078.87608
 -15489314.39108 -12069590.38008  20447833.29008  20447838.12808
 93 04 09 23 04 00.0000000  0  6 26 15 19 02 13 27
  -6982830.32608  -5441156.44208  21362778.66408  21362783.74108
  -6399437.77107  -4986539.40908  22974040.16607  22974048.21408
  15051861.23308  11728683.31407  23583686.47708  23583699.88007
  -4237413.06308  -3301873.00608  19826822.45108  19826826.21808
 -15918447.28108 -12403946.68208  19647507.32608  19647512.39508
 -15167252.49408 -11818633.25608  20509119.78408  20509124.70108
 93 04 09 23 06 00.0000000  0  6 26 15 19 02 13 27
  -6937998.22408  -5406222.35508  21371310.03408  21371315.04508
  -6188182.98507  -4821925.42807  23014240.91507  23014248.71207
  15443021.42408  12033482.73807  23658122.36908  23658135.94207
  -4185656.72808  -3261543.37408  19836671.41408  19836675.12708
 -16196430.57608 -12620556.63808  19594608.53908  19594613.50508
 -14838964.22108 -11562824.41808  20571591.07308  20571596.02808
 93 04 09 23 08 00.0000000  0  6 26 15 19 02 13 27
  -6885124.28208  -5365021.90108  21381371.61708  21381376.67708
  -5969179.25307  -4651273.42507  23055915.82707  23055923.87407
  15836080.67807  12339762.00407  23732919.67307  23732933.35707
  -4131197.38408  -3219107.53208  19847034.67008  19847038.40708
 -16465891.45108 -12830525.75208  19543331.54308  19543336.42408
 -14504575.18508 -11302261.74208  20635223.24708  20635228.41308
 93 04 09 23 10 00.0000000  0  6 26 15 19 02 13 27
  -6825677.81908  -5318699.97408  21392683.86308  21392688.94608
  -5743727.92707  -4475597.26107  23098818.14407  23098826.07907
  16229944.82707  12646668.46606  23807869.96007  23807883.44706
  -4075500.30208  -3175707.22308  19857633.45408  19857637.20908
 -16727929.05108 -13034710.51508  19493467.13508  19493471.96008
 -14165674.32408 -11038183.38208  20699714.15608  20699719.38008
